Provisional Data: Susquehanna River near Binghamton, NY


Please select a monitoring station.
Please select start date.
Please select start date.

Toggle Unit: C/F Toggle Unit: C/F
Sample Time Temperature (C) Temperature (F) Specific Conductivity (mS/cm) pH   Turbidity (NTU+) DO (mg/L)
10/17/2022 12:00:00 AM 6.2683 2.2342
10/17/2022 12:15:00 AM 6.2588 2.2132
10/17/2022 12:30:00 AM 6.2595 2.1426
10/17/2022 12:45:00 AM 6.2523 2.2404
10/17/2022 1:00:00 AM 6.2407 2.2477
10/17/2022 1:15:00 AM 6.2321 2.2295
10/17/2022 1:30:00 AM 6.2242 2.2364
10/17/2022 1:45:00 AM 6.2099 2.344
10/17/2022 2:00:00 AM 6.1923 2.3371
10/17/2022 2:15:00 AM 6.1739 2.2914
10/17/2022 2:30:00 AM 6.161 2.2576
10/17/2022 2:45:00 AM 6.1418 2.3
10/17/2022 3:00:00 AM 6.1172 3.5198
10/17/2022 3:15:00 AM 6.1086 2.4762
10/17/2022 3:30:00 AM 6.098 2.3777
10/17/2022 3:45:00 AM 6.0762 2.4575
10/17/2022 4:00:00 AM 6.0495 2.4094
10/17/2022 4:15:00 AM 6.0304 2.3809
10/17/2022 4:30:00 AM 6.02 2.3182
10/17/2022 4:45:00 AM 6.0184 2.2836
10/17/2022 5:00:00 AM 6.0424 2.4649
10/17/2022 5:15:00 AM 6.0385 2.5128
10/17/2022 5:30:00 AM 6.0115 2.4912
10/17/2022 5:45:00 AM 5.9934 2.4
10/17/2022 6:00:00 AM 5.93 2.6384
10/17/2022 6:15:00 AM 5.8966 2.3399
10/17/2022 6:30:00 AM 5.8784 2.4527
10/17/2022 6:45:00 AM 5.8742 3.0827
10/17/2022 7:00:00 AM 5.8793 2.7001
10/17/2022 7:15:00 AM 5.8761 2.5362
10/17/2022 7:30:00 AM 5.8571 2.395
10/17/2022 7:45:00 AM 5.8389 2.4152
10/17/2022 8:00:00 AM 5.8326 2.2679
10/17/2022 8:15:00 AM 5.831 2.2531
10/17/2022 8:30:00 AM 5.8306 2.2887
10/17/2022 8:45:00 AM 5.8324 2.3
10/17/2022 9:00:00 AM 5.8283 2.5129
10/17/2022 9:15:00 AM 5.8258 2.5772
10/17/2022 9:30:00 AM 5.8226 2.2669
10/17/2022 9:45:00 AM 5.8196 2.1805
10/17/2022 10:00:00 AM 5.8194 2.1492
10/17/2022 10:15:00 AM 5.8159 2.549
10/17/2022 10:30:00 AM 5.8164 2.7313
10/17/2022 10:45:00 AM 5.8162 2.1409
10/17/2022 11:00:00 AM 5.8161 2.2281
10/17/2022 11:15:00 AM 5.8163 2.2752
10/17/2022 11:30:00 AM 5.8163 2.1949
10/17/2022 11:45:00 AM 5.817 2.1
10/17/2022 12:00:00 PM 5.8166 2.0629
10/17/2022 12:15:00 PM 5.8197 1.9268
10/17/2022 12:30:00 PM 5.8212 2.0069
10/17/2022 12:45:00 PM 5.8221 2.1796
10/17/2022 1:00:00 PM 5.826 2.3047
10/17/2022 1:15:00 PM 5.8261 2.2351
10/17/2022 1:30:00 PM 5.8262 3.1801
10/17/2022 1:45:00 PM 5.8295 2.1178
10/17/2022 2:00:00 PM 5.8371 3.1734
10/17/2022 2:15:00 PM 5.8416 2.8426
10/17/2022 2:30:00 PM 5.8455 2.382
10/17/2022 2:45:00 PM 5.8459 2.5201
10/17/2022 3:00:00 PM 5.8463 2.3389
10/17/2022 3:15:00 PM 5.8507 2.4502
10/17/2022 3:30:00 PM 5.8557 2.4626
10/17/2022 3:45:00 PM 5.8655 2.4971
10/17/2022 4:00:00 PM 5.8786 2.6463
10/17/2022 4:15:00 PM 5.8889 2.6923
10/17/2022 4:30:00 PM 5.8928 3.2775
10/17/2022 4:45:00 PM 5.9033 2.9035
10/17/2022 5:00:00 PM 5.9037 3.0181
10/17/2022 5:15:00 PM 5.919 3.0553
10/17/2022 5:30:00 PM 5.9406 2.7424
10/17/2022 5:45:00 PM 5.9444 2.8999
10/17/2022 6:00:00 PM 5.9478 2.6067
10/17/2022 6:15:00 PM 5.9673 2.1914
10/17/2022 6:30:00 PM 5.9877 2.2625
10/17/2022 6:45:00 PM 5.9964 7.9876
10/17/2022 7:00:00 PM 6.0087 3.7863
10/17/2022 7:15:00 PM 6.0129 2.533
10/17/2022 7:30:00 PM 6.0261 2.3248
10/17/2022 7:45:00 PM 6.0483 2.2136
10/17/2022 8:00:00 PM 6.0638 2.3505
10/17/2022 8:15:00 PM 6.0748 2.4904
10/17/2022 8:30:00 PM 6.0919 2.565
10/17/2022 8:45:00 PM 6.0928 2.4
10/17/2022 9:00:00 PM 6.0996 2.18
10/17/2022 9:15:00 PM 6.1216 2.0613
10/17/2022 9:30:00 PM 6.1302 2.0387
10/17/2022 9:45:00 PM 6.1383 2.0497
10/17/2022 10:00:00 PM 6.1413 2.6116
10/17/2022 10:15:00 PM 6.1346 2.6906
10/17/2022 10:30:00 PM 6.1364 2.2796
10/17/2022 10:45:00 PM 6.1436 2.4739
10/17/2022 11:00:00 PM 6.1433 2.3022
10/17/2022 11:15:00 PM 6.1316 2.2633
10/17/2022 11:30:00 PM 6.1358 2.163
10/17/2022 11:45:00 PM 6.1446 2.2
10/18/2022 12:00:00 AM 6.1596 2.1461
10/18/2022 12:15:00 AM 6.1548 2.1218
10/18/2022 12:30:00 AM 6.1539 2.9294
10/18/2022 12:45:00 AM 6.1475 2.3808
10/18/2022 1:00:00 AM 6.1386 2.6779
10/18/2022 1:15:00 AM 6.134 2.1812
10/18/2022 1:30:00 AM 6.1276 2.1496
10/18/2022 1:45:00 AM 6.1184 2.1992
10/18/2022 2:00:00 AM 6.115 3.295
10/18/2022 2:15:00 AM 6.1107 3.5202
10/18/2022 2:30:00 AM 6.1008 2.8315
10/18/2022 2:45:00 AM 6.0942 2.9
10/18/2022 3:00:00 AM 6.079 2.8339
10/18/2022 3:15:00 AM 6.0731 2.8895
10/18/2022 3:30:00 AM 6.0705 3.5214
10/18/2022 3:45:00 AM 6.0668 3.1805
10/18/2022 4:00:00 AM 6.0586 2.6736
10/18/2022 4:15:00 AM 6.0466 7.6529
10/18/2022 4:30:00 AM 6.039 4.4567
10/18/2022 4:45:00 AM 6.0351 2.9109
10/18/2022 5:00:00 AM 6.0344 2.7875
10/18/2022 5:15:00 AM 6.0307 3.6319
10/18/2022 5:30:00 AM 6.027 2.82
10/18/2022 5:45:00 AM 6.0242 2.5999
10/18/2022 6:00:00 AM 6.0124 2.1619
10/18/2022 6:15:00 AM 6.0055 2.2916
10/18/2022 6:30:00 AM 6.011 2.2823
10/18/2022 6:45:00 AM 6.0097 2.357
10/18/2022 7:00:00 AM 6.0098 2.2499
10/18/2022 7:15:00 AM 6.0061 2.3167
10/18/2022 7:30:00 AM 6.0005 2.0819
10/18/2022 7:45:00 AM 6.001 2.079
10/18/2022 8:00:00 AM 6.0089 2.0763
10/18/2022 8:15:00 AM 6.0138 2.0631
10/18/2022 8:30:00 AM 6.015 2.0603
10/18/2022 8:45:00 AM 6.0158 2.1
10/18/2022 9:00:00 AM 6.0104 2.1199
10/18/2022 9:15:00 AM 6.0064 2.04
10/18/2022 9:30:00 AM 6.0055 2.2006
10/18/2022 9:45:00 AM 6.0162 2.1309
10/18/2022 10:00:00 AM 6.013 2.0694
10/18/2022 10:15:00 AM 6.0044 2.2766
10/18/2022 10:30:00 AM 5.9973 2.4864
10/18/2022 10:45:00 AM 5.9813 2.6799
10/18/2022 11:00:00 AM 5.9727 2.8864
10/18/2022 11:15:00 AM 5.9674 3.0761
10/18/2022 11:30:00 AM 5.9653 2.4157
10/18/2022 11:45:00 AM 5.9626 2.6
10/18/2022 12:00:00 PM 5.9624 2.3061
10/18/2022 12:15:00 PM 5.966 2.3178
10/18/2022 12:30:00 PM 5.9672 2.3407
10/18/2022 12:45:00 PM 5.9685 2.4479
10/18/2022 1:00:00 PM 5.9697 3.1019
10/18/2022 1:15:00 PM 5.9718 3.7189
10/18/2022 1:30:00 PM 5.9711 5.3462
10/18/2022 1:45:00 PM 5.9723 3.1818
10/18/2022 2:00:00 PM 5.9763 3.6918
10/18/2022 2:15:00 PM 5.9767 4.4792
10/18/2022 2:30:00 PM 5.9805 3.7593
10/18/2022 2:45:00 PM 5.9867 2.568
10/18/2022 3:00:00 PM 5.9914 2.824
10/18/2022 3:15:00 PM 5.9961 3.1954
10/18/2022 3:30:00 PM 5.9976 3.4664
10/18/2022 3:45:00 PM 6.0026 2.8433
10/18/2022 4:00:00 PM 6.0096 2.522
10/18/2022 4:15:00 PM 6.014 2.7461
10/18/2022 4:30:00 PM 6.0234 3.3493
10/18/2022 4:45:00 PM 6.033 3.415
10/18/2022 5:00:00 PM 6.0377 2.8634
10/18/2022 5:15:00 PM 6.0341 2.7192
10/18/2022 5:30:00 PM 6.0366 2.7044
10/18/2022 5:45:00 PM 6.0438 2.7
10/18/2022 6:00:00 PM 6.0725 2.3537
10/18/2022 6:15:00 PM 6.0905 2.2186
10/18/2022 6:30:00 PM 6.1009 2.3633
10/18/2022 6:45:00 PM 6.1176 2.8154
10/18/2022 7:00:00 PM 6.1297 3.0993
10/18/2022 7:15:00 PM 6.1418 2.9869
10/18/2022 7:30:00 PM 6.1533 7.3031
10/18/2022 7:45:00 PM 6.1669 3.373
10/18/2022 8:00:00 PM 6.1795 2.6872
10/18/2022 8:15:00 PM 6.2051 2.59
10/18/2022 8:30:00 PM 6.2253 2.5799
10/18/2022 8:45:00 PM 6.2258 2.7
10/18/2022 9:00:00 PM 6.2565 2.2348
10/18/2022 9:15:00 PM 6.2704 2.3484
10/18/2022 9:30:00 PM 6.285 2.5124
10/18/2022 9:45:00 PM 6.2979 2.3187
10/18/2022 10:00:00 PM 6.3148 2.2097
10/18/2022 10:15:00 PM 6.3301 2.3941
10/18/2022 10:30:00 PM 6.3426 2.5032
10/18/2022 10:45:00 PM 6.357 2.4676
10/18/2022 11:00:00 PM 6.3666 2.6407
10/18/2022 11:15:00 PM 6.3674 3.8214
10/18/2022 11:30:00 PM 6.374 3.4669
10/18/2022 11:45:00 PM 6.3798 3.9
10/19/2022 12:00:00 AM 6.3754 4.0953
10/19/2022 12:15:00 AM 6.378 3.7845
10/19/2022 12:30:00 AM 6.3843 3.0248
10/19/2022 12:45:00 AM 6.3884 2.6023
10/19/2022 1:00:00 AM 6.3871 2.3958
10/19/2022 1:15:00 AM 6.39 2.3213
10/19/2022 1:30:00 AM 6.3922 2.3711
10/19/2022 1:45:00 AM 6.3932 2.3369
10/19/2022 2:00:00 AM 6.3904 2.3717
10/19/2022 2:15:00 AM 6.386 2.0781
10/19/2022 2:30:00 AM 6.3811 2.029
10/19/2022 2:45:00 AM 6.3798 2
10/19/2022 3:00:00 AM 6.3783 1.8412
10/19/2022 3:15:00 AM 6.3785 2.1975
10/19/2022 3:30:00 AM 6.3712 2.5753
10/19/2022 3:45:00 AM 6.3615 2.6049
10/19/2022 4:00:00 AM 6.3567 4.2114
10/19/2022 4:15:00 AM 6.3459 7.5387
10/19/2022 4:30:00 AM 6.3362 3.197
10/19/2022 4:45:00 AM 6.328 2.8664
10/19/2022 5:00:00 AM 6.3116 2.4261
10/19/2022 5:15:00 AM 6.2997 2.1809
10/19/2022 5:30:00 AM 6.2927 2.0853
10/19/2022 5:45:00 AM 6.2944 2
10/19/2022 6:00:00 AM 6.2714 2.7714
10/19/2022 6:15:00 AM 6.2569 2.7201
10/19/2022 6:30:00 AM 6.2489 2.2537
10/19/2022 6:45:00 AM 6.2379 2.1419
10/19/2022 7:00:00 AM 6.2298 2.0701
10/19/2022 7:15:00 AM 6.2159 2.0323
10/19/2022 7:30:00 AM 6.2085 3.1165
10/19/2022 7:45:00 AM 6.1974 2.783
10/19/2022 8:00:00 AM 6.1873 5.2559
10/19/2022 8:15:00 AM 6.1793 2.3981
10/19/2022 8:30:00 AM 6.1734 2.0629
10/19/2022 8:45:00 AM 6.1642 2
10/19/2022 9:00:00 AM 6.1619 1.8498
10/19/2022 9:15:00 AM 6.1635 2.1665
10/19/2022 9:30:00 AM 6.1643 2.1859
10/19/2022 9:45:00 AM 6.158 2.0352
10/19/2022 10:00:00 AM 6.147 2.0887
10/19/2022 10:15:00 AM 6.1332 3.4943
10/19/2022 10:30:00 AM 6.1171 3.1526
10/19/2022 10:45:00 AM 6.11 2.6327
10/19/2022 11:00:00 AM 6.1052 3.107
10/19/2022 11:15:00 AM 6.098 3.3685
10/19/2022 11:30:00 AM 6.0914 4.3771
10/19/2022 11:45:00 AM 6.0858 3.3
10/19/2022 12:00:00 PM 6.0825 2.342
10/19/2022 12:15:00 PM 6.0829 2.5385
10/19/2022 12:30:00 PM 6.0829 2.516
10/19/2022 12:45:00 PM 6.0826 2.3058
10/19/2022 1:00:00 PM 6.0814 2.2285
10/19/2022 1:15:00 PM 6.0823 2.55
10/19/2022 1:30:00 PM 6.0765 2.3937
10/19/2022 1:45:00 PM 6.0732 2.3381
10/19/2022 2:00:00 PM 6.0713 2.3601
10/19/2022 2:15:00 PM 6.0685 2.5307
10/19/2022 2:30:00 PM 6.0679 2.6431
10/19/2022 2:45:00 PM 6.07 2.5559
10/19/2022 3:00:00 PM 6.0769 2.243
10/19/2022 3:15:00 PM 6.0822 2.202
10/19/2022 3:30:00 PM 6.0874 2.2163
10/19/2022 3:45:00 PM 6.0918 2.166
10/19/2022 4:00:00 PM 6.0961 2.0586
10/19/2022 4:15:00 PM 6.1016 1.9021
10/19/2022 4:30:00 PM 6.1019 1.8123
10/19/2022 4:45:00 PM 6.1022 1.7244
10/19/2022 5:00:00 PM 6.1032 1.7891
10/19/2022 5:15:00 PM 6.1023 1.7489
10/19/2022 5:30:00 PM 6.1038 1.7689
10/19/2022 5:45:00 PM 6.1096 1.7
10/19/2022 6:00:00 PM 6.1224 1.7218
10/19/2022 6:15:00 PM 6.1307 1.8718
10/19/2022 6:30:00 PM 6.1396 3.96
10/19/2022 6:45:00 PM 6.1504 2.3689
10/19/2022 7:00:00 PM 6.1544 2.1979
10/19/2022 7:15:00 PM 6.1703 6.1368
10/19/2022 7:30:00 PM 6.1865 3.0962
10/19/2022 7:45:00 PM 6.2017 2.3996
10/19/2022 8:00:00 PM 6.2137 2.0575
10/19/2022 8:15:00 PM 6.2291 1.8322
10/19/2022 8:30:00 PM 6.2423 1.75
10/19/2022 8:45:00 PM 6.2496 1.8
10/19/2022 9:00:00 PM 6.2557 1.6999
10/19/2022 9:15:00 PM 6.262 1.6487
10/19/2022 9:30:00 PM 6.2744 1.7222
10/19/2022 9:45:00 PM 6.2815 1.7467
10/19/2022 10:00:00 PM 6.288 1.6581
10/19/2022 10:15:00 PM 6.2896 1.6481
10/19/2022 10:30:00 PM 6.2668 3.6609
10/19/2022 10:45:00 PM 6.2513 3.5974
10/19/2022 11:00:00 PM 6.2968 3.6939
10/19/2022 11:15:00 PM 6.3223 3.0549
10/19/2022 11:30:00 PM 6.347 2.8273
10/19/2022 11:45:00 PM 6.3546 2.8
10/20/2022 12:00:00 AM 6.3787 3.5727
10/20/2022 12:15:00 AM 6.3988 2.5081
10/20/2022 12:30:00 AM 6.4153 2.3747
10/20/2022 12:45:00 AM 6.419 2.6788
10/20/2022 1:00:00 AM 6.4177 2.9216
10/20/2022 1:15:00 AM 6.4223 3.0793
10/20/2022 1:30:00 AM 6.4263 2.4953
10/20/2022 1:45:00 AM 6.4311 2.9285
10/20/2022 2:00:00 AM 6.4294 2.5019
10/20/2022 2:15:00 AM 6.4336 2.398
10/20/2022 2:30:00 AM 6.4417 2.3722
10/20/2022 2:45:00 AM 6.4442 2.4
10/20/2022 3:00:00 AM 6.451 2.4827
10/20/2022 3:15:00 AM 6.451 2.6042
10/20/2022 3:30:00 AM 6.4512 2.2209
10/20/2022 3:45:00 AM 6.4458 2.133
10/20/2022 4:00:00 AM 6.4389 2.024
10/20/2022 4:15:00 AM 6.4323 2.0701
10/20/2022 4:30:00 AM 6.4235 2.1139
10/20/2022 4:45:00 AM 6.414 2.1831
10/20/2022 5:00:00 AM 6.4023 2.3184
10/20/2022 5:15:00 AM 6.3926 2.2639
10/20/2022 5:30:00 AM 6.3824 2.2767
10/20/2022 5:45:00 AM 6.3798 2.4
10/20/2022 6:00:00 AM 6.3705 2.3675
10/20/2022 6:15:00 AM 6.3649 4.8611
10/20/2022 6:30:00 AM 6.3552 4.4297
10/20/2022 6:45:00 AM 6.3444 2.979
10/20/2022 7:00:00 AM 6.3335 2.8651
10/20/2022 7:15:00 AM 6.3293 2.2131
10/20/2022 7:30:00 AM 6.3131 1.9679
10/20/2022 7:45:00 AM 6.2987 1.872
10/20/2022 8:00:00 AM 6.2837 1.8148
10/20/2022 8:15:00 AM 6.2718 1.8053
10/20/2022 8:30:00 AM 6.2545 1.7611
10/20/2022 8:45:00 AM 6.2496 1.7999
10/20/2022 9:00:00 AM 6.2316 1.7516
10/20/2022 9:15:00 AM 6.2228 1.7843
10/20/2022 9:30:00 AM 6.2151 1.863
10/20/2022 9:45:00 AM 6.2013 2.0566
10/20/2022 10:00:00 AM 6.1963 2.3424
10/20/2022 10:15:00 AM 6.1873 2.2921
10/20/2022 10:30:00 AM 6.1741 2.1801
10/20/2022 10:45:00 AM 6.166 2.1809
10/20/2022 11:00:00 AM 6.1573 2.6055
10/20/2022 11:15:00 AM 6.1501 2.1768
10/20/2022 11:30:00 AM 6.138 2.181
10/20/2022 11:45:00 AM 6.1306 3
10/20/2022 12:00:00 PM 6.1281 2.3374
10/20/2022 12:15:00 PM 6.1194 2.5538
10/20/2022 12:30:00 PM 6.1171 2.4685
10/20/2022 12:45:00 PM 6.1117 2.8111
10/20/2022 1:00:00 PM 6.1084 2.6908
10/20/2022 1:15:00 PM 6.1109 2.4272
10/20/2022 1:30:00 PM 6.1077 2.0811
10/20/2022 1:45:00 PM 6.1013 3.6064
10/20/2022 2:00:00 PM 6.1017 2.536
10/20/2022 2:15:00 PM 6.1025 2.1739
10/20/2022 2:30:00 PM 6.1021 2.0017
10/20/2022 2:45:00 PM 6.0995 1.8781
10/20/2022 3:00:00 PM 6.1013 1.7504
10/20/2022 3:15:00 PM 6.1062 1.6559
10/20/2022 3:30:00 PM 6.1069 1.7032
10/20/2022 3:45:00 PM 6.1067 1.9356
10/20/2022 4:00:00 PM 6.1108 1.9315
10/20/2022 4:15:00 PM 6.1207 1.693
10/20/2022 4:30:00 PM 6.1268 1.6488
10/20/2022 4:45:00 PM 6.1326 1.6339
10/20/2022 5:00:00 PM 6.1396 1.6334
10/20/2022 5:15:00 PM 6.1512 1.8157
10/20/2022 5:30:00 PM 6.1593 1.7052
10/20/2022 5:45:00 PM 6.1614 1.6
10/20/2022 6:00:00 PM 6.1736 1.8036
10/20/2022 6:15:00 PM 6.1753 1.6556
10/20/2022 6:30:00 PM 6.1777 1.7208
10/20/2022 6:45:00 PM 6.1902 1.7323
10/20/2022 7:00:00 PM 6.206 1.888
10/20/2022 7:15:00 PM 6.2097 2.1095
10/20/2022 7:30:00 PM 6.2192 2.4768
10/20/2022 7:45:00 PM 6.231 2.2068
10/20/2022 8:00:00 PM 6.239 1.9179
10/20/2022 8:15:00 PM 6.2433 1.8743
10/20/2022 8:30:00 PM 6.2514 2.1167
10/20/2022 8:45:00 PM 6.258 2.5
10/20/2022 9:00:00 PM 6.2751 2.0301
10/20/2022 9:15:00 PM 6.2827 1.8629
10/20/2022 9:30:00 PM 6.2946 1.8487
10/20/2022 9:45:00 PM 6.3137 1.7995
10/20/2022 10:00:00 PM 6.3225 1.7782
10/20/2022 10:15:00 PM 6.34 1.6068
10/20/2022 10:30:00 PM 6.36 1.5439
10/20/2022 10:45:00 PM 6.3484 2.9807
10/20/2022 11:00:00 PM 6.369 2.5685
10/20/2022 11:15:00 PM 6.395 2.4743
10/20/2022 11:30:00 PM 6.4063 2.3886
10/20/2022 11:45:00 PM 6.4134 2.3
10/21/2022 12:00:00 AM 6.4397 2.185
10/21/2022 12:15:00 AM 6.4507 2.4766
10/21/2022 12:30:00 AM 6.4607 4.172
10/21/2022 12:45:00 AM 6.4698 3.2926
10/21/2022 1:00:00 AM 6.4785 2.478
10/21/2022 1:15:00 AM 6.4909 2.1931
10/21/2022 1:30:00 AM 6.5067 2.0948
10/21/2022 1:45:00 AM 6.5138 2.0157
10/21/2022 2:00:00 AM 6.5158 2.1086
10/21/2022 2:15:00 AM 6.5197 2.3044
10/21/2022 2:30:00 AM 6.5255 1.9829
10/21/2022 2:45:00 AM 6.5296 1.9
10/21/2022 3:00:00 AM 6.5382 2.0604
10/21/2022 3:15:00 AM 6.5465 2.6532
10/21/2022 3:30:00 AM 6.5485 2.1375
10/21/2022 3:45:00 AM 6.5469 1.9923
10/21/2022 4:00:00 AM 6.5434 1.8733
10/21/2022 4:15:00 AM 6.5369 1.8597
10/21/2022 4:30:00 AM 6.53 1.9018
10/21/2022 4:45:00 AM 6.5227 2.0206
10/21/2022 5:00:00 AM 6.5143 1.9071
10/21/2022 5:15:00 AM 6.504 1.7631
10/21/2022 5:30:00 AM 6.4933 1.797
10/21/2022 5:45:00 AM 6.4918 1.8
10/21/2022 6:00:00 AM 6.4683 1.5341
10/21/2022 6:15:00 AM 6.4577 1.4518
10/21/2022 6:30:00 AM 6.4481 1.5243
10/21/2022 6:45:00 AM 6.4406 1.4301
10/21/2022 7:00:00 AM 6.4273 1.5557
10/21/2022 7:15:00 AM 6.4164 1.54
10/21/2022 7:30:00 AM 6.4029 1.5208
10/21/2022 7:45:00 AM 6.3955 1.4956
10/21/2022 8:00:00 AM 6.3906 1.4472
10/21/2022 8:15:00 AM 6.3824 1.3654
10/21/2022 8:30:00 AM 6.368 1.3521
10/21/2022 8:45:00 AM 6.363 1.4
10/21/2022 9:00:00 AM 6.3515 1.3514
10/21/2022 9:15:00 AM 6.3432 1.3428
10/21/2022 9:30:00 AM 6.3259 1.3495
10/21/2022 9:45:00 AM 6.3187 1.7239
10/21/2022 10:00:00 AM 6.3042 2.774
10/21/2022 10:15:00 AM 6.2899 2.3701
10/21/2022 10:30:00 AM 6.2676 1.541
10/21/2022 10:45:00 AM 6.2504 1.8307
10/21/2022 11:00:00 AM 6.2304 1.7171
10/21/2022 11:15:00 AM 6.2082 1.3901
10/21/2022 11:30:00 AM 6.1899 1.4835
10/21/2022 11:45:00 AM 6.1838 1.7001
10/21/2022 12:00:00 PM 6.1573 1.6138
10/21/2022 12:15:00 PM 6.1469 1.6595
10/21/2022 12:30:00 PM 6.1454 1.6515
10/21/2022 12:45:00 PM 6.1451 1.4602
10/21/2022 1:00:00 PM 6.1384 1.3097
10/21/2022 1:15:00 PM 6.1268 1.2597
10/21/2022 1:30:00 PM 6.1173 1.2833
10/21/2022 1:45:00 PM 6.1159 1.2679
10/21/2022 2:00:00 PM 6.1145 1.3259
10/21/2022 2:15:00 PM 6.1118 1.3428
10/21/2022 2:30:00 PM 6.1118 1.3361
10/21/2022 2:45:00 PM 6.1149 1.3342
10/21/2022 3:00:00 PM 6.1082 1.3423
10/21/2022 3:15:00 PM 6.1037 1.4225
10/21/2022 3:30:00 PM 6.1007 1.4428
10/21/2022 3:45:00 PM 6.1006 1.4302
10/21/2022 4:00:00 PM 6.1098 1.3493
10/21/2022 4:15:00 PM 6.1128 1.3679
10/21/2022 4:30:00 PM 6.108 1.3466
10/21/2022 4:45:00 PM 6.1111 1.3241
10/21/2022 5:00:00 PM 6.1174 1.2976
10/21/2022 5:15:00 PM 6.1229 1.2724
10/21/2022 5:30:00 PM 6.1268 1.2843
10/21/2022 5:45:00 PM 6.1292 1.3
10/21/2022 6:00:00 PM 6.1385 1.3463
10/21/2022 6:15:00 PM 6.1408 1.3386
10/21/2022 6:30:00 PM 6.1417 1.3491
10/21/2022 6:45:00 PM 6.15 1.3522
10/21/2022 7:00:00 PM 6.1587 1.3441
10/21/2022 7:15:00 PM 6.169 1.3973
10/21/2022 7:30:00 PM 6.1795 1.3673
10/21/2022 7:45:00 PM 6.1914 1.3358
10/21/2022 8:00:00 PM 6.1937 1.4114
10/21/2022 8:15:00 PM 6.1955 1.4919
10/21/2022 8:30:00 PM 6.2041 1.5313
10/21/2022 8:45:00 PM 6.2104 1.7
10/21/2022 9:00:00 PM 6.2235 1.5295
10/21/2022 9:15:00 PM 6.2373 1.366
10/21/2022 9:30:00 PM 6.2537 1.3516
10/21/2022 9:45:00 PM 6.2653 1.3192
10/21/2022 10:00:00 PM 6.276 1.4199
10/21/2022 10:15:00 PM 6.2879 1.3661
10/21/2022 10:30:00 PM 6.2967 1.3218
10/21/2022 10:45:00 PM 6.313 1.2907
10/21/2022 11:00:00 PM 6.3268 1.2686
10/21/2022 11:15:00 PM 6.3508 1.2512
10/21/2022 11:30:00 PM 6.3746 1.283
10/21/2022 11:45:00 PM 6.384 1.3
10/22/2022 12:00:00 AM 6.4092 1.4324
10/22/2022 12:15:00 AM 6.418 1.3513
10/22/2022 12:30:00 AM 6.4342 1.3502
10/22/2022 12:45:00 AM 6.4434 1.3383
10/22/2022 1:00:00 AM 6.4525 1.3394
10/22/2022 1:15:00 AM 6.4625 1.3406
10/22/2022 1:30:00 AM 6.4815 1.3176
10/22/2022 1:45:00 AM 6.493 1.3456
10/22/2022 2:00:00 AM 6.4929 1.5111
10/22/2022 2:15:00 AM 6.4844 1.5288
10/22/2022 2:30:00 AM 6.4778 1.6171
10/22/2022 2:45:00 AM 6.4792 5.4991
10/22/2022 3:00:00 AM 6.4764 1.4626
10/22/2022 3:15:00 AM 6.4821 1.4368
10/22/2022 3:30:00 AM 6.4898 1.4374
10/22/2022 3:45:00 AM 6.4941 1.5039
10/22/2022 4:00:00 AM 6.4927 1.5069
10/22/2022 4:15:00 AM 6.4894 1.5106
10/22/2022 4:30:00 AM 6.484 1.441
10/22/2022 4:45:00 AM 6.4782 1.3512
10/22/2022 5:00:00 AM 6.4684 1.3571
10/22/2022 5:15:00 AM 6.4575 1.6978
10/22/2022 5:30:00 AM 6.4416 2.0351
10/22/2022 5:45:00 AM 6.4316 2.1
10/22/2022 6:00:00 AM 6.3997 1.6618
10/22/2022 6:15:00 AM 6.3861 2.3366
10/22/2022 6:30:00 AM 6.3759 1.6901
10/22/2022 6:45:00 AM 6.3664 1.6485
10/22/2022 7:00:00 AM 6.3659 1.6254
10/22/2022 7:15:00 AM 6.3685 1.6466
10/22/2022 7:30:00 AM 6.3689 1.7271
10/22/2022 7:45:00 AM 6.3701 1.9359
10/22/2022 8:00:00 AM 6.3731 1.8368
10/22/2022 8:15:00 AM 6.3629 1.7388
10/22/2022 8:30:00 AM 6.3494 1.8111
10/22/2022 8:45:00 AM 6.3448 1.7
10/22/2022 9:00:00 AM 6.303 1.567
10/22/2022 9:15:00 AM 6.2704 1.6087
10/22/2022 9:30:00 AM 6.2652 1.9924
10/22/2022 9:45:00 AM 6.2782 2.0437
10/22/2022 10:00:00 AM 6.2757 1.8408
10/22/2022 10:15:00 AM 6.2564 2.0599
10/22/2022 10:30:00 AM 6.2333 2.7683
10/22/2022 10:45:00 AM 6.2049 6.1478
10/22/2022 11:00:00 AM 6.1693 3.7576
10/22/2022 11:15:00 AM 6.1436 2.0743
10/22/2022 11:30:00 AM 6.128 1.7964
10/22/2022 11:45:00 AM 6.1222 2.1
10/22/2022 12:00:00 PM 6.1004 2.921
10/22/2022 12:15:00 PM 6.0911 1.9148
10/22/2022 12:30:00 PM 6.0809 1.4539
10/22/2022 12:45:00 PM 6.0717 1.5353
10/22/2022 1:00:00 PM 6.0606 1.6013
10/22/2022 1:15:00 PM 6.0652 1.7091
10/22/2022 1:30:00 PM 6.063 1.6159
10/22/2022 1:45:00 PM 6.059 2.4736
10/22/2022 2:00:00 PM 6.0548 2.4619
10/22/2022 2:15:00 PM 6.0486 3.6848
10/22/2022 2:30:00 PM 6.0472 3.0897
10/22/2022 2:45:00 PM 6.0442 2.0129
10/22/2022 3:00:00 PM 6.0417 1.7074
10/22/2022 3:15:00 PM 6.0406 1.7351
10/22/2022 3:30:00 PM 6.0445 1.7196
10/22/2022 3:45:00 PM 6.0494 1.5997
10/22/2022 4:00:00 PM 6.0488 1.6185
10/22/2022 4:15:00 PM 6.0491 1.537
10/22/2022 4:30:00 PM 6.0524 1.4923
10/22/2022 4:45:00 PM 6.0559 1.4489
10/22/2022 5:00:00 PM 6.0619 1.3466
10/22/2022 5:15:00 PM 6.0669 1.4141
10/22/2022 5:30:00 PM 6.0723 1.3771
10/22/2022 5:45:00 PM 6.0788 1.3999
10/22/2022 6:00:00 PM 6.0822 1.2453
10/22/2022 6:15:00 PM 6.0827 1.2568
10/22/2022 6:30:00 PM 6.0873 1.3554
10/22/2022 6:45:00 PM 6.0924 1.43
10/22/2022 7:00:00 PM 6.1012 1.4337
10/22/2022 7:15:00 PM 6.1067 1.3466
10/22/2022 7:30:00 PM 6.1103 1.4293
10/22/2022 7:45:00 PM 6.116 1.9108
10/22/2022 8:00:00 PM 6.1237 1.7387
10/22/2022 8:15:00 PM 6.1369 1.545
10/22/2022 8:30:00 PM 6.1573 1.5052
10/22/2022 8:45:00 PM 6.1698 1.5001
10/22/2022 9:00:00 PM 6.1776 1.7281
10/22/2022 9:15:00 PM 6.1829 1.5796
10/22/2022 9:30:00 PM 6.1844 2.0997
10/22/2022 9:45:00 PM 6.1946 2.4601
10/22/2022 10:00:00 PM 6.2123 3.8758
10/22/2022 10:15:00 PM 6.2251 4.9236
10/22/2022 10:30:00 PM 6.246 3.2413
10/22/2022 10:45:00 PM 6.2388 4.7168
10/22/2022 11:00:00 PM 6.2577 3.3105
10/22/2022 11:15:00 PM 6.2728 2.4193
10/22/2022 11:30:00 PM 6.2953 2.5024
10/22/2022 11:45:00 PM 6.3042 2.4
10/23/2022 12:00:00 AM 6.3402 1.9812
10/23/2022 12:15:00 AM 6.3464 1.992
10/23/2022 12:30:00 AM 6.3554 2.0354
10/23/2022 12:45:00 AM 6.3609 1.9798
10/23/2022 1:00:00 AM 6.3706 1.9299
10/23/2022 1:15:00 AM 6.3776 1.9087
10/23/2022 1:30:00 AM 6.3909 1.8603
10/23/2022 1:45:00 AM 6.4014 1.8415
10/23/2022 2:00:00 AM 6.4113 2.0502
10/23/2022 2:15:00 AM 6.4277 2.5566
10/23/2022 2:30:00 AM 6.4373 4.8451
10/23/2022 2:45:00 AM 6.4386 5.1
10/23/2022 3:00:00 AM 6.441 2.0333
10/23/2022 3:15:00 AM 6.4448 1.9729
10/23/2022 3:30:00 AM 6.4481 1.9305
10/23/2022 3:45:00 AM 6.4506 1.7646
10/23/2022 4:00:00 AM 6.4457 1.6588
10/23/2022 4:15:00 AM 6.4395 1.7508
10/23/2022 4:30:00 AM 6.4343 1.7381
10/23/2022 4:45:00 AM 6.4268 1.6982
10/23/2022 5:00:00 AM 6.4184 1.7642
10/23/2022 5:15:00 AM 6.4085 1.8663
10/23/2022 5:30:00 AM 6.3927 2.5117
10/23/2022 5:45:00 AM 6.3826 2.6
10/23/2022 6:00:00 AM 6.3649 2.2847
10/23/2022 6:15:00 AM 6.3466 7.2931
10/23/2022 6:30:00 AM 6.3235 2.4496
10/23/2022 6:45:00 AM 6.2966 2.1515
10/23/2022 7:00:00 AM 6.2751 2.1487
10/23/2022 7:15:00 AM 6.2593 2.0916
10/23/2022 7:30:00 AM 6.2442 1.9394
10/23/2022 7:45:00 AM 6.2285 1.7889
10/23/2022 8:00:00 AM 6.2114 1.694
10/23/2022 8:15:00 AM 6.1944 1.768
10/23/2022 8:30:00 AM 6.1792 1.9222
10/23/2022 8:45:00 AM 6.1754 1.9999
10/23/2022 9:00:00 AM 6.15 2.4663
10/23/2022 9:15:00 AM 6.1339 2.667
10/23/2022 9:30:00 AM 6.123 7.6096
10/23/2022 9:45:00 AM 6.1141 2.7734
10/23/2022 10:00:00 AM 6.1017 1.6425
10/23/2022 10:15:00 AM 6.094 1.4674
10/23/2022 10:30:00 AM 6.086 1.4649
10/23/2022 10:45:00 AM 6.0703 1.5177
10/23/2022 11:00:00 AM 6.0532 1.5577
10/23/2022 11:15:00 AM 6.0489 1.5418
10/23/2022 11:30:00 AM 6.0543 1.6557
10/23/2022 11:45:00 AM 6.0634 1.7
10/23/2022 12:00:00 PM 6.0747 2.156
10/23/2022 12:15:00 PM 6.0604 2.6044
10/23/2022 12:30:00 PM 6.0461 2.6486
10/23/2022 12:45:00 PM 6.0336 1.7892
10/23/2022 1:00:00 PM 6.0215 4.7923
10/23/2022 1:15:00 PM 6.0089 1.674
10/23/2022 1:30:00 PM 5.9998 1.4008
10/23/2022 1:45:00 PM 5.997 1.2807
10/23/2022 2:00:00 PM 5.9928 1.3429
10/23/2022 2:15:00 PM 5.9913 1.3526
10/23/2022 2:30:00 PM 5.9918 1.5532
10/23/2022 2:45:00 PM 5.993 3.3473
10/23/2022 3:00:00 PM 5.9909 5.7619
10/23/2022 3:15:00 PM 5.9927 4.5262
10/23/2022 3:30:00 PM 5.9924 3.189
10/23/2022 3:45:00 PM 5.9933 3.5023
10/23/2022 4:00:00 PM 5.9946 2.8248
10/23/2022 4:15:00 PM 5.9923 3.2336
10/23/2022 4:30:00 PM 5.9947 4.3807
10/23/2022 4:45:00 PM 6.003 7.5465
10/23/2022 5:00:00 PM 6.0117 8.0208
10/23/2022 5:15:00 PM 6.0189 4.1847
10/23/2022 5:30:00 PM 6.0225 5.2261
10/23/2022 5:45:00 PM 6.0214 4.1
10/23/2022 6:00:00 PM 6.0139 5.2553
10/23/2022 6:15:00 PM 6.0258 1.8505
10/23/2022 6:30:00 PM 6.0403 1.5844
10/23/2022 6:45:00 PM 6.0462 1.644
10/23/2022 7:00:00 PM 6.0466 1.7079
10/23/2022 7:15:00 PM 6.0561 1.6462
10/23/2022 7:30:00 PM 6.0684 1.8792
10/23/2022 7:45:00 PM 6.0769 2.3208
10/23/2022 8:00:00 PM 6.0939 2.4222
10/23/2022 8:15:00 PM 6.1132 2.2193
10/23/2022 8:30:00 PM 6.1229 1.912
10/23/2022 8:45:00 PM 6.1278 1.9
10/23/2022 9:00:00 PM 6.1589 1.6357
10/23/2022 9:15:00 PM 6.1733 1.6831
10/23/2022 9:30:00 PM 6.1801 1.7483
10/23/2022 9:45:00 PM 6.1937 1.7961
10/23/2022 10:00:00 PM 6.2023 1.8061
10/23/2022 10:15:00 PM 6.2098 2.5008
10/23/2022 10:30:00 PM 6.2081 3.7109
10/23/2022 10:45:00 PM 6.2173 4.2659
10/23/2022 11:00:00 PM 6.2443 3.8158
10/23/2022 11:15:00 PM 6.2714 4.5411
10/23/2022 11:30:00 PM 6.2858 4.0828
10/23/2022 11:45:00 PM 6.2874 3.2998
10/24/2022 12:00:00 AM 6.3186 2.8805
10/24/2022 12:15:00 AM 6.3367 2.5285
10/24/2022 12:30:00 AM 6.3515 2.3954
10/24/2022 12:45:00 AM 6.372 2.9228
10/24/2022 1:00:00 AM 6.392 2.4243
10/24/2022 1:15:00 AM 6.4132 2.1174
10/24/2022 1:30:00 AM 6.4195 2.1039
10/24/2022 1:45:00 AM 6.4202 2.1689
10/24/2022 2:00:00 AM 6.4364 2.0588
10/24/2022 2:15:00 AM 6.4463 4.9193
10/24/2022 2:30:00 AM 6.4559 2.2524
10/24/2022 2:45:00 AM 6.4638 1.9
10/24/2022 3:00:00 AM 6.4569 2.2447
10/24/2022 3:15:00 AM 6.4661 1.8477
10/24/2022 3:30:00 AM 6.4753 2.1259
10/24/2022 3:45:00 AM 6.4768 2.2215
10/24/2022 4:00:00 AM 6.48 1.8191
10/24/2022 4:15:00 AM 6.4775 1.6887
10/24/2022 4:30:00 AM 6.4754 1.5793
10/24/2022 4:45:00 AM 6.4679 1.5424
10/24/2022 5:00:00 AM 6.4612 1.6447
10/24/2022 5:15:00 AM 6.4483 2.2207
10/24/2022 5:30:00 AM 6.4287 2.1611
10/24/2022 5:45:00 AM 6.4232 2.1
10/24/2022 6:00:00 AM 6.3903 1.906
10/24/2022 6:15:00 AM 6.3677 1.9504
10/24/2022 6:30:00 AM 6.3405 2.2636
10/24/2022 6:45:00 AM 6.3031 2.2598
10/24/2022 7:00:00 AM 6.289 2.4192
10/24/2022 7:15:00 AM 6.2857 2.2686
10/24/2022 7:30:00 AM 6.2645 2.1141
10/24/2022 7:45:00 AM 6.2427 2.2052
10/24/2022 8:00:00 AM 6.2036 1.954
10/24/2022 8:15:00 AM 6.1809 1.828
10/24/2022 8:30:00 AM 6.1457 1.8116
10/24/2022 8:45:00 AM 6.1334 1.8
10/24/2022 9:00:00 AM 6.1234 1.7507
10/24/2022 9:15:00 AM 6.1197 1.8554
10/24/2022 9:30:00 AM 6.122 4.1087
10/24/2022 9:45:00 AM 6.1012 10.0464
10/24/2022 10:00:00 AM 6.0836 13.534
10/24/2022 10:15:00 AM 6.0519 10.9996
10/24/2022 10:30:00 AM 6.0194 14.7706
10/24/2022 10:45:00 AM 5.9978 25.344
10/24/2022 11:00:00 AM 5.9788 24.6441
10/24/2022 11:15:00 AM 5.9678 23.3769
10/24/2022 11:30:00 AM 5.9677 17.8289
10/24/2022 11:45:00 AM 5.9668 16.9
10/24/2022 12:00:00 PM 5.9559 15.8032
10/24/2022 12:15:00 PM 5.9519 18.0556
10/24/2022 12:30:00 PM 5.9479 12.6629
10/24/2022 12:45:00 PM 5.9448 13.9588
10/24/2022 1:00:00 PM 5.941 14.5985
10/24/2022 1:15:00 PM 5.9343 12.1127
10/24/2022 1:30:00 PM 5.9329 14.685
10/24/2022 1:45:00 PM 5.9343 13.3921
10/24/2022 2:00:00 PM 5.934 14.1001
10/24/2022 2:15:00 PM 5.9312 14.2276
10/24/2022 2:30:00 PM 5.9315 14.4757
10/24/2022 2:45:00 PM 5.9314 13.7196
10/24/2022 3:00:00 PM 5.933 13.9637
10/24/2022 3:15:00 PM 5.9305 15.2419
10/24/2022 3:30:00 PM 5.9297 14.5211
10/24/2022 3:45:00 PM 5.9333 13.6926
10/24/2022 4:00:00 PM 5.9336 14.3189
10/24/2022 4:15:00 PM 5.9353 14.2218
10/24/2022 4:30:00 PM 5.935 14.8646
10/24/2022 4:45:00 PM 5.9342 14.788
10/24/2022 5:00:00 PM 5.9514 14.1055
10/24/2022 5:15:00 PM 5.9701 14.0249
10/24/2022 5:30:00 PM 5.9867 9.888
10/24/2022 5:45:00 PM 5.9892 9.5
10/24/2022 6:00:00 PM 5.9925 9.3082
10/24/2022 6:15:00 PM 6.0056 8.7033
10/24/2022 6:30:00 PM 6.0195 8.5878
10/24/2022 6:45:00 PM 6.0278 8.5786
10/24/2022 7:00:00 PM 6.0527 8.1286
10/24/2022 7:15:00 PM 6.0619 8.7185
10/24/2022 7:30:00 PM 6.0499 11.9911
10/24/2022 7:45:00 PM 6.0481 12.9987
10/24/2022 8:00:00 PM 6.0687 9.1566
10/24/2022 8:15:00 PM 6.0741 8.7922
10/24/2022 8:30:00 PM 6.0747 9.2229
10/24/2022 8:45:00 PM 6.0746 9.3
10/24/2022 9:00:00 PM 6.0615 9.4827
10/24/2022 9:15:00 PM 6.0545 11.8514
10/24/2022 9:30:00 PM 6.049 9.9488
10/24/2022 9:45:00 PM 6.0379 10.3922
10/24/2022 10:00:00 PM 6.0226 11.1116
10/24/2022 10:15:00 PM 6.0021 11.3644
10/24/2022 10:30:00 PM 5.9876 11.342
10/24/2022 10:45:00 PM 5.9706 11.3938
10/24/2022 11:00:00 PM 5.9607 11.0664
10/24/2022 11:15:00 PM 5.9488 11.5299
10/24/2022 11:30:00 PM 5.9323 12.1282
10/24/2022 11:45:00 PM 5.9262 11.8
10/25/2022 12:00:00 AM 5.9043 11.6948
10/25/2022 12:15:00 AM 5.8944 11.6162
10/25/2022 12:30:00 AM 5.8836 11.5226
10/25/2022 12:45:00 AM 5.8755 11.7398
10/25/2022 1:00:00 AM 5.8612 11.3536
10/25/2022 1:15:00 AM 5.851 11.2871
10/25/2022 1:30:00 AM 5.8425 11.8641
10/25/2022 1:45:00 AM 5.8337 11.2662
10/25/2022 2:00:00 AM 5.8286 11.2449
10/25/2022 2:15:00 AM 5.8209 10.8725
10/25/2022 2:30:00 AM 5.8107 10.6888
10/25/2022 2:45:00 AM 5.8044 11
10/25/2022 3:00:00 AM 5.798 10.0607
10/25/2022 3:15:00 AM 5.7883 10.3472
10/25/2022 3:30:00 AM 5.7806 9.6907
10/25/2022 3:45:00 AM 5.7736 9.4567
10/25/2022 4:00:00 AM 5.766 9.1012
10/25/2022 4:15:00 AM 5.762 8.6945
10/25/2022 4:30:00 AM 5.7582 8.7733
10/25/2022 4:45:00 AM 5.7555 8.9447
10/25/2022 5:00:00 AM 5.7527 9.1103
10/25/2022 5:15:00 AM 5.7477 9.3927
10/25/2022 5:30:00 AM 5.743 8.5981
10/25/2022 5:45:00 AM 5.7386 8.1
10/25/2022 6:00:00 AM 5.7344 7.1296
10/25/2022 6:15:00 AM 5.7303 6.8624
10/25/2022 6:30:00 AM 5.7299 6.7066
10/25/2022 6:45:00 AM 5.7266 6.2293
10/25/2022 7:00:00 AM 5.7233 6.2138
10/25/2022 7:15:00 AM 5.72 5.9907
10/25/2022 7:30:00 AM 5.7171 6.1484
10/25/2022 7:45:00 AM 5.7146 6.1191
10/25/2022 8:00:00 AM 5.7112 6.0143
10/25/2022 8:15:00 AM 5.7109 5.7464
10/25/2022 8:30:00 AM 5.709 5.7742
10/25/2022 8:45:00 AM 5.7064 5.7
10/25/2022 9:00:00 AM 5.7063 5.3297
10/25/2022 9:15:00 AM 5.7066 5.3202
10/25/2022 9:30:00 AM 5.7038 8.1175
10/25/2022 9:45:00 AM 5.702 5.3593
10/25/2022 10:00:00 AM 5.6994 6.4613
10/25/2022 10:15:00 AM 5.7019 4.9278
10/25/2022 10:30:00 AM 5.7019 4.7628
10/25/2022 10:45:00 AM 5.7017 4.6348
10/25/2022 11:00:00 AM 5.7013 4.9881
10/25/2022 11:15:00 AM 5.7012 4.7822
10/25/2022 11:30:00 AM 5.703 4.8501
10/25/2022 11:45:00 AM 5.6994 4.5
10/25/2022 12:00:00 PM 5.7015 4.3182
10/25/2022 12:15:00 PM 5.7036 5.9436
10/25/2022 12:30:00 PM 5.7037 5.4179
10/25/2022 12:45:00 PM 5.7068 4.4984
10/25/2022 1:00:00 PM 5.7076 6.6842
10/25/2022 1:15:00 PM 5.7112 4.4191
10/25/2022 1:30:00 PM 5.7144 6.6326
10/25/2022 1:45:00 PM 5.7198 5.0796
10/25/2022 2:00:00 PM 5.7214 4.2012
10/25/2022 2:15:00 PM 5.7259 3.9648
10/25/2022 2:30:00 PM 5.7263 3.9979
10/25/2022 2:45:00 PM 5.729 4.0261
10/25/2022 3:00:00 PM 5.7374 3.7307
10/25/2022 3:15:00 PM 5.7393 3.6448
10/25/2022 3:30:00 PM 5.7391 3.854
10/25/2022 3:45:00 PM 5.7494 3.7202
10/25/2022 4:00:00 PM 5.7658 3.5672
10/25/2022 4:15:00 PM 5.7726 3.3713
10/25/2022 4:30:00 PM 5.7828 3.2899
10/25/2022 4:45:00 PM 5.7924 3.2584
10/25/2022 5:00:00 PM 5.8069 3.1047
10/25/2022 5:15:00 PM 5.8203 3.0374
10/25/2022 5:30:00 PM 5.8379 2.9557
10/25/2022 5:45:00 PM 5.8492 2.9
10/25/2022 6:00:00 PM 5.8684 2.882
10/25/2022 6:15:00 PM 5.8656 2.9383
10/25/2022 6:30:00 PM 5.8741 3.0086
10/25/2022 6:45:00 PM 5.8854 3.0336
10/25/2022 7:00:00 PM 5.9062 3.2713
10/25/2022 7:15:00 PM 5.9201 5.2978
10/25/2022 7:30:00 PM 5.9233 5.1001
10/25/2022 7:45:00 PM 5.9484 3.0744
10/25/2022 8:00:00 PM 5.9605 2.9832
10/25/2022 8:15:00 PM 5.9687 2.9883
10/25/2022 8:30:00 PM 5.9785 3.2809
10/25/2022 8:45:00 PM 5.9836 3.4
10/25/2022 9:00:00 PM 6.0268 4.209
10/25/2022 9:15:00 PM 6.0341 5.4272
10/25/2022 9:30:00 PM 6.0351 7.3652
10/25/2022 9:45:00 PM 6.0491 6.9142
10/25/2022 10:00:00 PM 6.0573 9.1046
10/25/2022 10:15:00 PM 6.0634 5.4709
10/25/2022 10:30:00 PM 6.0721 7.1487
10/25/2022 10:45:00 PM 6.0833 8.583
10/25/2022 11:00:00 PM 6.1017 4.6126
10/25/2022 11:15:00 PM 6.1138 3.6816
10/25/2022 11:30:00 PM 6.0982 3.321
10/25/2022 11:45:00 PM 6.0928 2.8
10/26/2022 12:00:00 AM 6.0963 4.2681
10/26/2022 12:15:00 AM 6.0919 2.7257
10/26/2022 12:30:00 AM 6.0825 23.6513
10/26/2022 12:45:00 AM 6.0703 3.7318
10/26/2022 1:00:00 AM 6.0531 3.5848
10/26/2022 1:15:00 AM 6.0193 5.2089
10/26/2022 1:30:00 AM 6.0193 5.3545
10/26/2022 1:45:00 AM 6.0054 3.7479
10/26/2022 2:00:00 AM 5.9869 6.1319
10/26/2022 2:15:00 AM 5.9588 6.4874
10/26/2022 2:30:00 AM 5.9343 7.3206
10/26/2022 2:45:00 AM 5.9192 7.8
10/26/2022 3:00:00 AM 5.8866 10.2168
10/26/2022 3:15:00 AM 5.8688 11.1708
10/26/2022 3:30:00 AM 5.8469 13.0094
10/26/2022 3:45:00 AM 5.84 15.1609
10/26/2022 4:00:00 AM 5.8207 16.5553
10/26/2022 4:15:00 AM 5.8059 12.7007
10/26/2022 4:30:00 AM 5.799 13.6229
10/26/2022 4:45:00 AM 5.7778 17.2644
10/26/2022 5:00:00 AM 5.7107 120.5996
10/26/2022 5:15:00 AM 5.5753 438.5559
10/26/2022 5:30:00 AM 5.5948 350.4055
10/26/2022 5:45:00 AM 5.628 147.1017
10/26/2022 6:00:00 AM 5.7173 12.901
10/26/2022 6:15:00 AM 5.724 16.386
10/26/2022 6:30:00 AM 5.7074 14.5896
10/26/2022 6:45:00 AM 5.6926 13.9412
10/26/2022 7:00:00 AM 5.6826 12.7731
10/26/2022 7:15:00 AM 5.6699 14.4952
10/26/2022 7:30:00 AM 5.664 13.7082
10/26/2022 7:45:00 AM 5.6628 12.5746
10/26/2022 8:00:00 AM 5.6603 11.984
10/26/2022 8:15:00 AM 5.6592 7.7194
10/26/2022 8:30:00 AM 5.6622 9.6114
10/26/2022 8:45:00 AM 5.663 12.0004
10/26/2022 9:00:00 AM 5.6644 7.1668
10/26/2022 9:15:00 AM 5.6671 4.675
10/26/2022 9:30:00 AM 5.6659 6.3112
10/26/2022 9:45:00 AM 5.6616 9.8917
10/26/2022 10:00:00 AM 5.662 4.3771
10/26/2022 10:15:00 AM 5.665 3.4775
10/26/2022 10:30:00 AM 5.6632 3.5061
10/26/2022 10:45:00 AM 5.6666 3.2263
10/26/2022 11:00:00 AM 5.6659 3.2534
10/26/2022 11:15:00 AM 5.6732 3.1234
10/26/2022 11:30:00 AM 5.6747 3.1087
10/26/2022 11:45:00 AM 5.6784 3
10/26/2022 12:00:00 PM 5.6869 2.9395
10/26/2022 12:15:00 PM 5.6923 4.8757
10/26/2022 12:30:00 PM 5.706 5.339
10/26/2022 12:45:00 PM 5.7157 4.2124
10/26/2022 1:00:00 PM 5.7216 6.7513
10/26/2022 1:15:00 PM 5.7238 5.6274
10/26/2022 1:30:00 PM 5.7274 3.2282
10/26/2022 1:45:00 PM 5.7398 5.3898
10/26/2022 2:00:00 PM 5.7577 4.1242
10/26/2022 2:15:00 PM 5.7733 3.5826
10/26/2022 2:30:00 PM 5.7757 3.1522
10/26/2022 2:45:00 PM 5.7753 4.3647
10/26/2022 3:00:00 PM 5.7858 3.4538
10/26/2022 3:15:00 PM 5.7983 2.8497
10/26/2022 3:30:00 PM 5.8034 2.7681
10/26/2022 3:45:00 PM 5.8022 2.7966
10/26/2022 4:00:00 PM 5.8129 2.6802
10/26/2022 4:15:00 PM 5.8337 2.6196
10/26/2022 4:30:00 PM 5.8402 3.4514
10/26/2022 4:45:00 PM 5.8437 4.9122
10/26/2022 5:00:00 PM 5.8477 3.9276
10/26/2022 5:15:00 PM 5.8803 4.2722
10/26/2022 5:30:00 PM 5.9036 4.0406
10/26/2022 5:45:00 PM 5.9122 3.7
10/26/2022 6:00:00 PM 5.9371 2.9028
10/26/2022 6:15:00 PM 5.9671 2.779
10/26/2022 6:30:00 PM 5.9946 3.1772
10/26/2022 6:45:00 PM 6.0179 3.9992
10/26/2022 7:00:00 PM 6.0302 2.5517
10/26/2022 7:15:00 PM 6.0414 2.4643
10/26/2022 7:30:00 PM 6.0497 2.4763
10/26/2022 7:45:00 PM 6.0832 2.4287
10/26/2022 8:00:00 PM 6.0812 2.4152
10/26/2022 8:15:00 PM 6.0619 2.4948
10/26/2022 8:30:00 PM 6.0961 2.5385
10/26/2022 8:45:00 PM 6.1068 2.6
10/26/2022 9:00:00 PM 6.1241 2.4494
10/26/2022 9:15:00 PM 6.1459 2.3921
10/26/2022 9:30:00 PM 6.1429 2.3799
10/26/2022 9:45:00 PM 6.1099 2.3774
10/26/2022 10:00:00 PM 6.1123 2.4269
10/26/2022 10:15:00 PM 6.1493 2.423
10/26/2022 10:30:00 PM 6.1626 2.4017
10/26/2022 10:45:00 PM 6.1607 2.4156
10/26/2022 11:00:00 PM 6.1417 3.6287
10/26/2022 11:15:00 PM 6.1508 2.5217
10/26/2022 11:30:00 PM 6.1502 2.4511
10/26/2022 11:45:00 PM 6.1488 2.3
10/27/2022 12:00:00 AM 6.1129 2.4315
10/27/2022 12:15:00 AM 6.0873 2.4161
10/27/2022 12:30:00 AM 6.075 2.3624
10/27/2022 12:45:00 AM 6.0623 2.4076
10/27/2022 1:00:00 AM 6.0542 2.3923
10/27/2022 1:15:00 AM 6.0426 2.4059
10/27/2022 1:30:00 AM 6.0253 2.488
10/27/2022 1:45:00 AM 6.0086 2.5586
10/27/2022 2:00:00 AM 5.9974 3.0953
10/27/2022 2:15:00 AM 5.977 3.9902
10/27/2022 2:30:00 AM 5.9623 3.7734
10/27/2022 2:45:00 AM 5.957 3.5
10/27/2022 3:00:00 AM 5.9336 9.2508
10/27/2022 3:15:00 AM 5.9109 7.3081
10/27/2022 3:30:00 AM 5.8972 7.5763
10/27/2022 3:45:00 AM 5.878 8.5468
10/27/2022 4:00:00 AM 5.8573 8.2987
10/27/2022 4:15:00 AM 5.8433 6.4286
10/27/2022 4:30:00 AM 5.8299 5.7222
10/27/2022 4:45:00 AM 5.8127 3.0552
10/27/2022 5:00:00 AM 5.7932 6.0119
10/27/2022 5:15:00 AM 5.7807 7.8816
10/27/2022 5:30:00 AM 5.7931 8.5755
10/27/2022 5:45:00 AM 5.7988 6.6
10/27/2022 6:00:00 AM 5.7836 29.7064
10/27/2022 6:15:00 AM 5.7798 15.3838
10/27/2022 6:30:00 AM 5.7891 4.1998
10/27/2022 6:45:00 AM 5.7872 3.0495
10/27/2022 7:00:00 AM 5.7814 4.2124
10/27/2022 7:15:00 AM 5.778 3.3848
10/27/2022 7:30:00 AM 5.7728 2.854
10/27/2022 7:45:00 AM 5.7616 2.7595
10/27/2022 8:00:00 AM 5.7416 2.7061
10/27/2022 8:15:00 AM 5.7185 2.5929
10/27/2022 8:30:00 AM 5.7164 3.3169
10/27/2022 8:45:00 AM 5.7162 3.2
10/27/2022 9:00:00 AM 5.7126 6.9134
10/27/2022 9:15:00 AM 5.7112 3.0242
10/27/2022 9:30:00 AM 5.7032 4.3117
10/27/2022 9:45:00 AM 5.7079 2.597
10/27/2022 10:00:00 AM 5.7141 2.492
10/27/2022 10:15:00 AM 5.7139 2.4615
10/27/2022 10:30:00 AM 5.7119 2.486
10/27/2022 10:45:00 AM 5.7166 4.2097
10/27/2022 11:00:00 AM 5.725 2.5151
10/27/2022 11:15:00 AM 5.7348 3.1715
10/27/2022 11:30:00 AM 5.7338 3.0926
10/27/2022 11:45:00 AM 5.74 2.9
10/27/2022 12:00:00 PM 5.7378 2.7124
10/27/2022 12:15:00 PM 5.745 2.6121
10/27/2022 12:30:00 PM 5.7462 2.4764
10/27/2022 12:45:00 PM 5.7499 4.6804
10/27/2022 1:00:00 PM 5.7541 3.1824
10/27/2022 1:15:00 PM 5.7546 3.5886
10/27/2022 1:30:00 PM 5.7631 2.28
10/27/2022 1:45:00 PM 5.768 2.2191
10/27/2022 2:00:00 PM 5.7737 2.2018
10/27/2022 2:15:00 PM 5.7779 2.3067
10/27/2022 2:30:00 PM 5.7738 3.2132
10/27/2022 2:45:00 PM 5.7928 2.6438
10/27/2022 3:00:00 PM 5.7987 2.8417
10/27/2022 3:15:00 PM 5.7893 4.7092
10/27/2022 3:30:00 PM 5.7776 2.5778
10/27/2022 3:45:00 PM 5.7812 2.3633
10/27/2022 4:00:00 PM 5.7885 2.385
10/27/2022 4:15:00 PM 5.8005 2.4056
10/27/2022 4:30:00 PM 5.7961 2.3963
10/27/2022 4:45:00 PM 5.7854 2.5498
10/27/2022 5:00:00 PM 5.7935 2.6498
10/27/2022 5:15:00 PM 5.8458 4.2711
10/27/2022 5:30:00 PM 5.8855 6.6424
10/27/2022 5:45:00 PM 5.8982 3
10/27/2022 6:00:00 PM 5.9307 2.4833
10/27/2022 6:15:00 PM 5.9493 2.4724
10/27/2022 6:30:00 PM 5.9658 2.4276
10/27/2022 6:45:00 PM 5.9769 2.4916
10/27/2022 7:00:00 PM 5.9988 3.0062
10/27/2022 7:15:00 PM 6.015 4.754
10/27/2022 7:30:00 PM 6.0273 4.0124
10/27/2022 7:45:00 PM 6.0294 4.0122
10/27/2022 8:00:00 PM 6.0351 2.6186
10/27/2022 8:15:00 PM 6.0488 2.126
10/27/2022 8:30:00 PM 6.0529 2.5085
10/27/2022 8:45:00 PM 6.0606 2.3
10/27/2022 9:00:00 PM 6.1004 2.114
10/27/2022 9:15:00 PM 6.1277 3.3788
10/27/2022 9:30:00 PM 6.1554 2.5687
10/27/2022 9:45:00 PM 6.178 5.5023
10/27/2022 10:00:00 PM 6.189 4.584
10/27/2022 10:15:00 PM 6.2052 2.565
10/27/2022 10:30:00 PM 6.2127 2.4492
10/27/2022 10:45:00 PM 6.2113 2.2965
10/27/2022 11:00:00 PM 6.2005 7.4091
10/27/2022 11:15:00 PM 6.2022 7.0131
10/27/2022 11:30:00 PM 6.201 3.0388
10/27/2022 11:45:00 PM 6.195 2.7
10/28/2022 12:00:00 AM 6.186 3.2276
10/28/2022 12:15:00 AM 6.198 8.2888
10/28/2022 12:30:00 AM 6.2039 3.5104
10/28/2022 12:45:00 AM 6.1934 2.699
10/28/2022 1:00:00 AM 6.1779 2.4315
10/28/2022 1:15:00 AM 6.1615 2.3974
10/28/2022 1:30:00 AM 6.1478 2.7699
10/28/2022 1:45:00 AM 6.1319 2.7046
10/28/2022 2:00:00 AM 6.113 2.8915
10/28/2022 2:15:00 AM 6.0996 2.4017
10/28/2022 2:30:00 AM 6.0816 4.745
10/28/2022 2:45:00 AM 6.069 3.2
10/28/2022 3:00:00 AM 6.0399 7.3691
10/28/2022 3:15:00 AM 6.0402 3.9465
10/28/2022 3:30:00 AM 6.0127 2.882
10/28/2022 3:45:00 AM 5.9849 3.1808
10/28/2022 4:00:00 AM 5.964 2.3349
10/28/2022 4:15:00 AM 5.9451 2.1889
10/28/2022 4:30:00 AM 5.9385 2.2374
10/28/2022 4:45:00 AM 5.932 2.3228
10/28/2022 5:00:00 AM 5.9175 2.2224
10/28/2022 5:15:00 AM 5.8984 2.1885
10/28/2022 5:30:00 AM 5.8801 2.5484
10/28/2022 5:45:00 AM 5.873 2.9
10/28/2022 6:00:00 AM 5.8663 2.3895
10/28/2022 6:15:00 AM 5.8545 2.1432
10/28/2022 6:30:00 AM 5.8501 2.3769
10/28/2022 6:45:00 AM 5.8522 11.0861
10/28/2022 7:00:00 AM 5.8349 3.4057
10/28/2022 7:15:00 AM 5.8149 4.0343
10/28/2022 7:30:00 AM 5.7982 3.4938
10/28/2022 7:45:00 AM 5.7891 2.8307
10/28/2022 8:00:00 AM 5.784 2.9861
10/28/2022 8:15:00 AM 5.7742 2.5307
10/28/2022 8:30:00 AM 5.76 2.4275
10/28/2022 8:45:00 AM 5.7652 2.3001
10/28/2022 9:00:00 AM 5.7634 3.1662
10/28/2022 9:15:00 AM 5.7592 5.3241
10/28/2022 9:30:00 AM 5.7581 4.1832
10/28/2022 9:45:00 AM 5.759 2.5203
10/28/2022 10:00:00 AM 5.7611 2.4713
10/28/2022 10:15:00 AM 5.7601 2.4201
10/28/2022 10:30:00 AM 5.7618 2.4377
10/28/2022 10:45:00 AM 5.7628 2.3475
10/28/2022 11:00:00 AM 5.7635 2.2844
10/28/2022 11:15:00 AM 5.7628 2.2627
10/28/2022 11:30:00 AM 5.7634 2.6799
10/28/2022 11:45:00 AM 5.7582 3.1
10/28/2022 12:00:00 PM 5.7572 2.3244
10/28/2022 12:15:00 PM 5.7522 2.1882
10/28/2022 12:30:00 PM 5.752 4.8568
10/28/2022 12:45:00 PM 5.7571 4.2383
10/28/2022 1:00:00 PM 5.7609 2.8233
10/28/2022 1:15:00 PM 5.7721 2.3797
10/28/2022 1:30:00 PM 5.7797 2.2228
10/28/2022 1:45:00 PM 5.7805 4.1573
10/28/2022 2:00:00 PM 5.794 2.5749
10/28/2022 2:15:00 PM 5.8015 2.2183
10/28/2022 2:30:00 PM 5.803 2.1232
10/28/2022 2:45:00 PM 5.8073 2.0852
10/28/2022 3:00:00 PM 5.8112 2.0702
10/28/2022 3:15:00 PM 5.8231 2.0428
10/28/2022 3:30:00 PM 5.8338 2.0806
10/28/2022 3:45:00 PM 5.8445 2.5935
10/28/2022 4:00:00 PM 5.8557 5.9259
10/28/2022 4:15:00 PM 5.8758 2.9544
10/28/2022 4:30:00 PM 5.8942 2.2326
10/28/2022 4:45:00 PM 5.911 2.1313
10/28/2022 5:00:00 PM 5.9167 2.2584
10/28/2022 5:15:00 PM 5.9305 2.136
10/28/2022 5:30:00 PM 5.949 1.9537
10/28/2022 5:45:00 PM 5.9584 2
10/28/2022 6:00:00 PM 5.9917 2.1911
10/28/2022 6:15:00 PM 6.009 1.9936
10/28/2022 6:30:00 PM 6.0239 1.9704
10/28/2022 6:45:00 PM 6.05 1.8879
10/28/2022 7:00:00 PM 6.0717 1.9051
10/28/2022 7:15:00 PM 6.0895 3.0541
10/28/2022 7:30:00 PM 6.1205 2.2408
10/28/2022 7:45:00 PM 6.1511 2.037
10/28/2022 8:00:00 PM 6.1479 5.8184
10/28/2022 8:15:00 PM 6.1519 2.0624
10/28/2022 8:30:00 PM 6.1791 1.9202
10/28/2022 8:45:00 PM 6.1936 1.9
10/28/2022 9:00:00 PM 6.2242 2.2504
10/28/2022 9:15:00 PM 6.264 4.9344
10/28/2022 9:30:00 PM 6.2821 2.0088
10/28/2022 9:45:00 PM 6.2961 1.8809
10/28/2022 10:00:00 PM 6.3027 1.8479
10/28/2022 10:15:00 PM 6.3184 1.7496
10/28/2022 10:30:00 PM 6.324 1.7811
10/28/2022 10:45:00 PM 6.3243 1.8085
10/28/2022 11:00:00 PM 6.3313 1.8558
10/28/2022 11:15:00 PM 6.3352 1.7857
10/28/2022 11:30:00 PM 6.3368 1.8133
10/28/2022 11:45:00 PM 6.3392 1.7001
10/29/2022 12:00:00 AM 6.3372 1.8029
10/29/2022 12:15:00 AM 6.3339 1.8565
10/29/2022 12:30:00 AM 6.3286 1.9306
10/29/2022 12:45:00 AM 6.3213 1.8113
10/29/2022 1:00:00 AM 6.3106 1.792
10/29/2022 1:15:00 AM 6.2944 1.7364
10/29/2022 1:30:00 AM 6.2695 1.7631
10/29/2022 1:45:00 AM 6.2441 1.7612
10/29/2022 2:00:00 AM 6.2249 1.7543
10/29/2022 2:15:00 AM 6.2049 3.5069
10/29/2022 2:30:00 AM 6.1893 1.9029
10/29/2022 2:45:00 AM 6.181 1.8
10/29/2022 3:00:00 AM 6.1352 1.8663
10/29/2022 3:15:00 AM 6.1132 2.0839
10/29/2022 3:30:00 AM 6.0929 2.2743
10/29/2022 3:45:00 AM 6.0663 1.9919
10/29/2022 4:00:00 AM 6.0442 2.276
10/29/2022 4:15:00 AM 6.0201 2.0556
10/29/2022 4:30:00 AM 5.9849 2.7051
10/29/2022 4:45:00 AM 5.9536 3.4386
10/29/2022 5:00:00 AM 5.95 2.4733
10/29/2022 5:15:00 AM 5.9537 2.658
10/29/2022 5:30:00 AM 5.959 2.3167
10/29/2022 5:45:00 AM 5.9556 2.7
10/29/2022 6:00:00 AM 5.8986 2.1447
10/29/2022 6:15:00 AM 5.864 1.9747
10/29/2022 6:30:00 AM 5.8429 2.1772
10/29/2022 6:45:00 AM 5.8401 2.3044
10/29/2022 7:00:00 AM 5.8398 2.1616
10/29/2022 7:15:00 AM 5.8314 2.0369
10/29/2022 7:30:00 AM 5.8183 1.9272
10/29/2022 7:45:00 AM 5.8149 1.8495
10/29/2022 8:00:00 AM 5.8087 1.8573
10/29/2022 8:15:00 AM 5.7997 1.8462
10/29/2022 8:30:00 AM 5.794 1.8906
10/29/2022 8:45:00 AM 5.7918 1.9
10/29/2022 9:00:00 AM 5.7865 1.8547
10/29/2022 9:15:00 AM 5.7804 1.8759
10/29/2022 9:30:00 AM 5.776 1.9077
10/29/2022 9:45:00 AM 5.7531 1.8026
10/29/2022 10:00:00 AM 5.7331 1.7716
10/29/2022 10:15:00 AM 5.7163 1.7349
10/29/2022 10:30:00 AM 5.7106 4.0052
10/29/2022 10:45:00 AM 5.7413 5.685
10/29/2022 11:00:00 AM 5.7545 2.7815
10/29/2022 11:15:00 AM 5.7595 1.9306
10/29/2022 11:30:00 AM 5.7612 1.852
10/29/2022 11:45:00 AM 5.7624 1.8
10/29/2022 12:00:00 PM 5.7626 1.7581
10/29/2022 12:15:00 PM 5.7617 1.7373
10/29/2022 12:30:00 PM 5.7625 1.748
10/29/2022 12:45:00 PM 5.7609 2.2769
10/29/2022 1:00:00 PM 5.7593 1.9854
10/29/2022 1:15:00 PM 5.7632 1.9798
10/29/2022 1:30:00 PM 5.7641 1.8169
10/29/2022 1:45:00 PM 5.7704 1.7414
10/29/2022 2:00:00 PM 5.7731 1.7975
10/29/2022 2:15:00 PM 5.768 4.5319
10/29/2022 2:30:00 PM 5.7744 1.932
10/29/2022 2:45:00 PM 5.781 1.891
10/29/2022 3:00:00 PM 5.7848 1.7519
10/29/2022 3:15:00 PM 5.7873 1.6984
10/29/2022 3:30:00 PM 5.7925 1.7287
10/29/2022 3:45:00 PM 5.8005 1.9676
10/29/2022 4:00:00 PM 5.7989 7.0128
10/29/2022 4:15:00 PM 5.804 5.3653
10/29/2022 4:30:00 PM 5.8187 2.517
10/29/2022 4:45:00 PM 5.8357 1.8413
10/29/2022 5:00:00 PM 5.8493 1.7048
10/29/2022 5:15:00 PM 5.8581 1.646
10/29/2022 5:30:00 PM 5.87 1.5968
10/29/2022 5:45:00 PM 5.8828 1.6
10/29/2022 6:00:00 PM 5.8974 2.2511
10/29/2022 6:15:00 PM 5.9186 1.6193
10/29/2022 6:30:00 PM 5.9442 1.555
10/29/2022 6:45:00 PM 5.9632 1.5342
10/29/2022 7:00:00 PM 5.9837 1.7214
10/29/2022 7:15:00 PM 5.993 1.811
10/29/2022 7:30:00 PM 6.0022 1.7589
10/29/2022 7:45:00 PM 6.0199 1.633
10/29/2022 8:00:00 PM 6.0333 1.5764
10/29/2022 8:15:00 PM 6.054 3.2745
10/29/2022 8:30:00 PM 6.0813 3.4492
10/29/2022 8:45:00 PM 6.0942 2.6
10/29/2022 9:00:00 PM 6.1157 1.7161
10/29/2022 9:15:00 PM 6.1355 1.6694
10/29/2022 9:30:00 PM 6.1512 1.6553
10/29/2022 9:45:00 PM 6.1666 1.7669
10/29/2022 10:00:00 PM 6.1973 1.7732
10/29/2022 10:15:00 PM 6.2213 1.7282
10/29/2022 10:30:00 PM 6.2438 1.7905
10/29/2022 10:45:00 PM 6.2689 1.7205
10/29/2022 11:00:00 PM 6.2766 1.7967
10/29/2022 11:15:00 PM 6.2878 1.7888
10/29/2022 11:30:00 PM 6.2855 1.8366
10/29/2022 11:45:00 PM 6.2874 1.9
10/30/2022 12:00:00 AM 6.2903 1.7497
10/30/2022 12:15:00 AM 6.2902 1.6516
10/30/2022 12:30:00 AM 6.2929 1.6811
10/30/2022 12:45:00 AM 6.2999 1.6414
10/30/2022 1:00:00 AM 6.3003 1.6391
10/30/2022 1:15:00 AM 6.2969 1.6304
10/30/2022 1:30:00 AM 6.2937 2.904
10/30/2022 1:45:00 AM 6.2847 2.0066
10/30/2022 2:00:00 AM 6.2741 2.0136
10/30/2022 2:15:00 AM 6.2601 2.0893
10/30/2022 2:30:00 AM 6.2454 1.9844
10/30/2022 2:45:00 AM 6.2384 1.8
10/30/2022 3:00:00 AM 6.2107 1.8428
10/30/2022 3:15:00 AM 6.1951 1.8055
10/30/2022 3:30:00 AM 6.1847 2.0963
10/30/2022 3:45:00 AM 6.1719 1.9807
10/30/2022 4:00:00 AM 6.1404 1.8452
10/30/2022 4:15:00 AM 6.1046 2.1698
10/30/2022 4:30:00 AM 6.0775 2.0071
10/30/2022 4:45:00 AM 6.0524 2.051
10/30/2022 5:00:00 AM 6.0249 1.9696
10/30/2022 5:15:00 AM 6.0085 3.5583
10/30/2022 5:30:00 AM 5.986 3.4224
10/30/2022 5:45:00 AM 5.9738 3.3
10/30/2022 6:00:00 AM 5.9398 2.1653
10/30/2022 6:15:00 AM 5.9386 1.8928
10/30/2022 6:30:00 AM 5.9329 1.763
10/30/2022 6:45:00 AM 5.9187 1.6785
10/30/2022 7:00:00 AM 5.8975 1.7441
10/30/2022 7:15:00 AM 5.886 1.7022
10/30/2022 7:30:00 AM 5.8772 1.6613
10/30/2022 7:45:00 AM 5.861 1.6436
10/30/2022 8:00:00 AM 5.855 1.6538
10/30/2022 8:15:00 AM 5.8572 1.7202
10/30/2022 8:30:00 AM 5.8576 1.6334
10/30/2022 8:45:00 AM 5.8618 1.7
10/30/2022 9:00:00 AM 5.8402 1.9697
10/30/2022 9:15:00 AM 5.8386 2.0519
10/30/2022 9:30:00 AM 5.8334 2.7735
10/30/2022 9:45:00 AM 5.8259 2.3545
10/30/2022 10:00:00 AM 5.8102 1.8375
10/30/2022 10:15:00 AM 5.8063 1.5817
10/30/2022 10:30:00 AM 5.8067 1.5728
10/30/2022 10:45:00 AM 5.7862 1.5258
10/30/2022 11:00:00 AM 5.7898 5.6531
10/30/2022 11:15:00 AM 5.782 1.9692
10/30/2022 11:30:00 AM 5.7813 1.6426
10/30/2022 11:45:00 AM 5.7904 1.6
10/30/2022 12:00:00 PM 5.7974 2.386
10/30/2022 12:15:00 PM 5.797 5.1248
10/30/2022 12:30:00 PM 5.7965 4.1933
10/30/2022 12:45:00 PM 5.7957 4.812
10/30/2022 1:00:00 PM 5.7973 4.0596
10/30/2022 1:15:00 PM 5.7967 2.942
10/30/2022 1:30:00 PM 5.7968 7.3156
10/30/2022 1:45:00 PM 5.7941 4.1348
10/30/2022 2:00:00 PM 5.7928 2.3567
10/30/2022 2:15:00 PM 5.7932 2.4233
10/30/2022 2:30:00 PM 5.7976 2.239
10/30/2022 2:45:00 PM 5.8039 1.9012
10/30/2022 3:00:00 PM 5.8127 1.7999
10/30/2022 3:15:00 PM 5.8164 1.8769
10/30/2022 3:30:00 PM 5.8211 2.0601
10/30/2022 3:45:00 PM 5.8314 2.0345
10/30/2022 4:00:00 PM 5.8382 2.7796
10/30/2022 4:15:00 PM 5.8436 5.7465
10/30/2022 4:30:00 PM 5.8497 2.0898
10/30/2022 4:45:00 PM 5.8446 1.838
10/30/2022 5:00:00 PM 5.8346 1.789
10/30/2022 5:15:00 PM 5.8329 1.8286
10/30/2022 5:30:00 PM 5.8334 1.8593
10/30/2022 5:45:00 PM 5.838 1.8
10/30/2022 6:00:00 PM 5.8649 1.7204
10/30/2022 6:15:00 PM 5.8787 1.66
10/30/2022 6:30:00 PM 5.9004 1.7008
10/30/2022 6:45:00 PM 5.9336 1.6785
10/30/2022 7:00:00 PM 5.9733 1.7623
10/30/2022 7:15:00 PM 5.9897 3.0638
10/30/2022 7:30:00 PM 6.0028 4.9112
10/30/2022 7:45:00 PM 6.0154 2.3547
10/30/2022 8:00:00 PM 6.0196 1.786
10/30/2022 8:15:00 PM 6.0459 1.5615
10/30/2022 8:30:00 PM 6.0357 1.5964
10/30/2022 8:45:00 PM 6.0256 1.5001
10/30/2022 9:00:00 PM 6.0644 1.5473
10/30/2022 9:15:00 PM 6.0896 1.4459
10/30/2022 9:30:00 PM 6.1234 1.4798
10/30/2022 9:45:00 PM 6.1567 1.5825
10/30/2022 10:00:00 PM 6.1508 4.5837
10/30/2022 10:15:00 PM 6.175 2.1001
10/30/2022 10:30:00 PM 6.2175 1.6592
10/30/2022 10:45:00 PM 6.2397 1.5635
10/30/2022 11:00:00 PM 6.2513 1.5158
10/30/2022 11:15:00 PM 6.2575 1.6979
10/30/2022 11:30:00 PM 6.2449 2.2352
10/30/2022 11:45:00 PM 6.1922 3.3
10/31/2022 12:00:00 AM 6.3029 2.6737
10/31/2022 12:15:00 AM 6.3257 1.9538
10/31/2022 12:30:00 AM 6.3351 1.8626
10/31/2022 12:45:00 AM 6.3369 1.7247
10/31/2022 1:00:00 AM 6.3394 1.6621
10/31/2022 1:15:00 AM 6.352 1.6559
10/31/2022 1:30:00 AM 6.3602 2.6362
10/31/2022 1:45:00 AM 6.3694 3.0023
10/31/2022 2:00:00 AM 6.3742 1.6706
10/31/2022 2:15:00 AM 6.3662 1.744
10/31/2022 2:30:00 AM 6.3582 1.7732
10/31/2022 2:45:00 AM 6.3504 1.8
10/31/2022 3:00:00 AM 6.3306 3.3291
10/31/2022 3:15:00 AM 6.3118 2.1506
10/31/2022 3:30:00 AM 6.2967 1.8447
10/31/2022 3:45:00 AM 6.2759 1.809
10/31/2022 4:00:00 AM 6.2538 2.2059
10/31/2022 4:15:00 AM 6.2381 2.3675
10/31/2022 4:30:00 AM 6.2219 2.0032
10/31/2022 4:45:00 AM 6.1872 2.8547
10/31/2022 5:00:00 AM 6.1502 1.7015
10/31/2022 5:15:00 AM 6.1247 1.5894
10/31/2022 5:30:00 AM 6.1165 1.5674
10/31/2022 5:45:00 AM 6.1194 1.6
10/31/2022 6:00:00 AM 6.1192 1.718
10/31/2022 6:15:00 AM 6.106 2.0174
10/31/2022 6:30:00 AM 6.1045 2.1058
10/31/2022 6:45:00 AM 6.0943 1.6625
10/31/2022 7:00:00 AM 6.0583 1.8432
10/31/2022 7:15:00 AM 6.03 1.6903
10/31/2022 7:30:00 AM 6.0225 1.7312
10/31/2022 7:45:00 AM 6.0139 1.9524
10/31/2022 8:00:00 AM 5.9859 4.4592
10/31/2022 8:15:00 AM 5.962 2.0814
10/31/2022 8:30:00 AM 5.9321 1.7193
10/31/2022 8:45:00 AM 5.9164 1.7
10/31/2022 9:00:00 AM 5.8903 1.5564
10/31/2022 9:15:00 AM 5.8797 2.8857
10/31/2022 9:30:00 AM 5.8866 3.4003
10/31/2022 9:45:00 AM 5.8848 1.7699
10/31/2022 10:00:00 AM 5.8837 1.5661
10/31/2022 10:15:00 AM 5.8772 1.5383
10/31/2022 10:30:00 AM 5.8713 1.5816
10/31/2022 10:45:00 AM 5.8617 1.546
10/31/2022 11:00:00 AM 5.8569 1.5409
10/31/2022 11:15:00 AM 5.852 1.5048
10/31/2022 11:30:00 AM 5.8467 1.5212
10/31/2022 11:45:00 AM 5.845 1.5001
10/31/2022 12:00:00 PM 5.8376 1.4775
10/31/2022 12:15:00 PM 5.8376 1.9246
10/31/2022 12:30:00 PM 5.8382 1.4755
10/31/2022 12:45:00 PM 5.8359 1.4384
10/31/2022 1:00:00 PM 5.8333 1.4256
10/31/2022 1:15:00 PM 5.8349 1.4248
10/31/2022 1:30:00 PM 5.8292 1.443
10/31/2022 1:45:00 PM 5.831 4.3787
10/31/2022 2:00:00 PM 5.8363 1.5474
10/31/2022 2:15:00 PM 5.8402 1.4674
10/31/2022 2:30:00 PM 5.8428 1.4667
10/31/2022 2:45:00 PM 5.8467 1.4248
10/31/2022 3:00:00 PM 5.8502 1.5915
10/31/2022 3:15:00 PM 5.8541 3.8867
10/31/2022 3:30:00 PM 5.8594 1.6021
10/31/2022 3:45:00 PM 5.8604 1.4593
10/31/2022 4:00:00 PM 5.8645 1.475
10/31/2022 4:15:00 PM 5.8702 1.4831
10/31/2022 4:30:00 PM 5.8757 1.4827
10/31/2022 4:45:00 PM 5.8822 1.5007
10/31/2022 5:00:00 PM 5.8883 1.4854
10/31/2022 5:15:00 PM 5.8921 1.4421
10/31/2022 5:30:00 PM 5.8989 1.4074
10/31/2022 5:45:00 PM 5.8982 1.4
10/31/2022 6:00:00 PM 5.9172 1.3714
10/31/2022 6:15:00 PM 5.9347 1.3551
10/31/2022 6:30:00 PM 5.947 1.4189
10/31/2022 6:45:00 PM 5.9576 1.4399
10/31/2022 7:00:00 PM 5.9678 1.4821
10/31/2022 7:15:00 PM 5.9812 1.5739
10/31/2022 7:30:00 PM 6.0004 1.6517
10/31/2022 7:45:00 PM 6.0075 1.4828
10/31/2022 8:00:00 PM 6.0187 1.4621
10/31/2022 8:15:00 PM 6.0355 1.3824
10/31/2022 8:30:00 PM 6.0579 1.3328
10/31/2022 8:45:00 PM 6.0746 1.4
10/31/2022 9:00:00 PM 6.0974 1.3388
10/31/2022 9:15:00 PM 6.1016 1.4161
10/31/2022 9:30:00 PM 6.113 1.5717
10/31/2022 9:45:00 PM 6.1302 1.7247
10/31/2022 10:00:00 PM 6.1382 1.8498
10/31/2022 10:15:00 PM 6.1602 1.7692
10/31/2022 10:30:00 PM 6.1898 1.8118
10/31/2022 10:45:00 PM 6.2077 1.7288
10/31/2022 11:00:00 PM 6.2252 1.5676
10/31/2022 11:15:00 PM 6.2195 1.5129
10/31/2022 11:30:00 PM 6.2298 1.4308
10/31/2022 11:45:00 PM 6.2384 1.3999
11/1/2022 12:00:00 AM 6.2321 1.3764
11/1/2022 12:15:00 AM 6.2612 1.377
11/1/2022 12:30:00 AM 6.2821 1.4058
11/1/2022 12:45:00 AM 6.2831 1.4145
11/1/2022 1:00:00 AM 6.2765 1.8079
11/1/2022 1:15:00 AM 6.2854 2.4284
11/1/2022 1:30:00 AM 6.2938 2.8989
11/1/2022 1:45:00 AM 6.2974 2.2798
11/1/2022 2:00:00 AM 6.3004 2.1577
11/1/2022 2:15:00 AM 6.2941 2.1818
11/1/2022 2:30:00 AM 6.2912 1.6243
11/1/2022 2:45:00 AM 6.2902 1.6
11/1/2022 3:00:00 AM 6.2806 1.5618
11/1/2022 3:15:00 AM 6.27 1.5355
11/1/2022 3:30:00 AM 6.2584 1.5313
11/1/2022 3:45:00 AM 6.2437 1.5408
11/1/2022 4:00:00 AM 6.2294 1.5172
11/1/2022 4:15:00 AM 6.2113 1.5359
11/1/2022 4:30:00 AM 6.1913 1.5432
11/1/2022 4:45:00 AM 6.1723 4.4131
11/1/2022 5:00:00 AM 6.1521 1.695
11/1/2022 5:15:00 AM 6.1348 1.5341
11/1/2022 5:30:00 AM 6.1197 1.5593
11/1/2022 5:45:00 AM 6.1124 1.6
11/1/2022 6:00:00 AM 6.0795 1.7113
11/1/2022 6:15:00 AM 6.0604 1.6867
11/1/2022 6:30:00 AM 6.0351 1.7275
11/1/2022 6:45:00 AM 6.0048 1.6294
11/1/2022 7:00:00 AM 5.9754 1.5914
11/1/2022 7:15:00 AM 5.9538 1.5496
11/1/2022 7:30:00 AM 5.9368 1.585
11/1/2022 7:45:00 AM 5.9239 1.5377
11/1/2022 8:00:00 AM 5.9101 1.5587
11/1/2022 8:15:00 AM 5.8894 1.5675
11/1/2022 8:30:00 AM 5.8733 1.6127
11/1/2022 8:45:00 AM 5.8674 1.8
11/1/2022 9:00:00 AM 5.8468 1.6509
11/1/2022 9:15:00 AM 5.8404 1.6362
11/1/2022 9:30:00 AM 5.8392 1.6333
11/1/2022 9:45:00 AM 5.8281 4.101
11/1/2022 10:00:00 AM 5.8159 2.2031
11/1/2022 10:15:00 AM 5.8078 1.5909
11/1/2022 10:30:00 AM 5.8011 1.5544
11/1/2022 10:45:00 AM 5.7972 1.5333
11/1/2022 11:00:00 AM 5.7964 1.5509
11/1/2022 11:15:00 AM 5.7909 1.5493
11/1/2022 11:30:00 AM 5.7863 1.4801
11/1/2022 11:45:00 AM 5.7848 1.5
11/1/2022 12:00:00 PM 5.7804 1.4466
11/1/2022 12:15:00 PM 5.777 1.4477
11/1/2022 12:30:00 PM 5.7762 1.5313
11/1/2022 12:45:00 PM 5.7731 1.535
11/1/2022 1:00:00 PM 5.7679 1.7022
11/1/2022 1:15:00 PM 5.7643 2.4887
11/1/2022 1:30:00 PM 5.7589 3.6366
11/1/2022 1:45:00 PM 5.759 1.6551
11/1/2022 2:00:00 PM 5.7588 1.5783
11/1/2022 2:15:00 PM 5.7585 1.4962
11/1/2022 2:30:00 PM 5.7587 1.5247
11/1/2022 2:45:00 PM 5.7587 1.4657
11/1/2022 3:00:00 PM 5.7597 1.4598
11/1/2022 3:15:00 PM 5.7629 1.4477
11/1/2022 3:30:00 PM 5.7641 1.4574
11/1/2022 3:45:00 PM 5.7677 1.4493
11/1/2022 4:00:00 PM 5.768 1.4744
11/1/2022 4:15:00 PM 5.7714 1.5195
11/1/2022 4:30:00 PM 5.7769 1.4967
11/1/2022 4:45:00 PM 5.7815 1.4948
11/1/2022 5:00:00 PM 5.7861 1.4616
11/1/2022 5:15:00 PM 5.7916 1.4985
11/1/2022 5:30:00 PM 5.7966 1.4849
11/1/2022 5:45:00 PM 5.7974 1.4
11/1/2022 6:00:00 PM 5.8041 1.4558
11/1/2022 6:15:00 PM 5.8109 1.5136
11/1/2022 6:30:00 PM 5.8154 2.0681
11/1/2022 6:45:00 PM 5.8191 1.6162
11/1/2022 7:00:00 PM 5.8269 1.554
11/1/2022 7:15:00 PM 5.8393 1.604
11/1/2022 7:30:00 PM 5.8531 1.6098
11/1/2022 7:45:00 PM 5.8642 1.5302
11/1/2022 8:00:00 PM 5.8784 1.4821
11/1/2022 8:15:00 PM 5.8863 3.3373
11/1/2022 8:30:00 PM 5.8957 1.6106
11/1/2022 8:45:00 PM 5.9108 1.5
11/1/2022 9:00:00 PM 5.9295 1.6179
11/1/2022 9:15:00 PM 5.9282 1.5481
11/1/2022 9:30:00 PM 5.9355 1.5294
11/1/2022 9:45:00 PM 5.9519 1.555
11/1/2022 10:00:00 PM 5.9757 1.5191
11/1/2022 10:15:00 PM 5.9987 1.5624
11/1/2022 10:30:00 PM 6.0094 1.5497
11/1/2022 10:45:00 PM 6.0187 1.5079
11/1/2022 11:00:00 PM 6.0144 1.5656
11/1/2022 11:15:00 PM 6.0077 1.6341
11/1/2022 11:30:00 PM 6.0225 1.7135
11/1/2022 11:45:00 PM 6.0351 1.7378
11/2/2022 12:00:00 AM 6.0445 1.7253
11/2/2022 12:15:00 AM 6.0533 1.7321
11/2/2022 12:30:00 AM 6.0641 1.6624
11/2/2022 12:45:00 AM 6.0797 1.6928
11/2/2022 1:00:00 AM 6.0813 1.7708
11/2/2022 1:15:00 AM 6.0833 1.6692
11/2/2022 1:30:00 AM 6.0962 10.1593
11/2/2022 1:45:00 AM 6.1049 5.4616
11/2/2022 2:00:00 AM 6.1059 2.6605
11/2/2022 2:15:00 AM 6.1078 1.8586
11/2/2022 2:30:00 AM 6.1113 1.7761
11/2/2022 2:45:00 AM 6.1122 1.7732
11/2/2022 3:00:00 AM 6.1091 1.707
11/2/2022 3:15:00 AM 6.1013 1.6473
11/2/2022 3:30:00 AM 6.0895 1.6509
11/2/2022 3:45:00 AM 6.0789 1.6296
11/2/2022 4:00:00 AM 6.0681 1.6023
11/2/2022 4:15:00 AM 6.0547 1.5758
11/2/2022 4:30:00 AM 6.0398 1.5911
11/2/2022 4:45:00 AM 6.0263 1.5468
11/2/2022 5:00:00 AM 6.0104 1.5384
11/2/2022 5:15:00 AM 5.9937 1.5374
11/2/2022 5:30:00 AM 5.9819 1.6054
11/2/2022 5:45:00 AM 5.9653 1.6195
11/2/2022 6:00:00 AM 5.9464 1.6245
11/2/2022 6:15:00 AM 5.9285 1.7453
11/2/2022 6:30:00 AM 5.9097 1.6795
11/2/2022 6:45:00 AM 5.8948 1.6239
11/2/2022 7:00:00 AM 5.8863 1.6858
11/2/2022 7:15:00 AM 5.872 1.7118
11/2/2022 7:30:00 AM 5.8613 1.7066
11/2/2022 7:45:00 AM 5.846 1.6556
11/2/2022 8:00:00 AM 5.8308 1.7333
11/2/2022 8:15:00 AM 5.8241 1.8495
11/2/2022 8:30:00 AM 5.8154 2.0611
11/2/2022 8:45:00 AM 5.8035 1.8989
11/2/2022 9:00:00 AM 5.7906 1.8228
11/2/2022 9:15:00 AM 5.7809 1.8705
11/2/2022 9:30:00 AM 5.7723 2.9903
11/2/2022 9:45:00 AM 5.7618 2.8236
11/2/2022 10:00:00 AM 5.7546 2.1428
11/2/2022 10:15:00 AM 5.7505 4.3058
11/2/2022 10:30:00 AM 5.7451 2.4425
11/2/2022 10:45:00 AM 5.7386 1.8995
11/2/2022 11:00:00 AM 5.733 2.1461
11/2/2022 11:15:00 AM 5.7297 3.7776
11/2/2022 11:30:00 AM 5.7278 2.6665
11/2/2022 11:45:00 AM 5.7237 2.2795
11/2/2022 12:00:00 PM 5.7206 2.1721
11/2/2022 12:15:00 PM 5.7175 1.8732
11/2/2022 12:30:00 PM 5.7155 1.8333
11/2/2022 12:45:00 PM 5.7131 1.7424
11/2/2022 1:00:00 PM 5.7118 1.7335
11/2/2022 1:15:00 PM 5.7114 4.3845
11/2/2022 1:30:00 PM 5.7112 3.0137
11/2/2022 1:45:00 PM 5.712 1.8432
11/2/2022 2:00:00 PM 5.7117 2.007
11/2/2022 2:15:00 PM 5.7129 2.0442
11/2/2022 2:30:00 PM 5.7158 1.9442
11/2/2022 2:45:00 PM 5.7184 1.8579
11/2/2022 3:00:00 PM 5.7224 2.0222
11/2/2022 3:15:00 PM 5.7257 3.3651
11/2/2022 3:30:00 PM 5.7323 2.6152
11/2/2022 3:45:00 PM 5.7394 2.3998
11/2/2022 4:00:00 PM 5.7474 1.94
11/2/2022 4:15:00 PM 5.7534 1.8569
11/2/2022 4:30:00 PM 5.7608 1.8188
11/2/2022 4:45:00 PM 5.7715 1.7839
11/2/2022 5:00:00 PM 5.7797 1.7796
11/2/2022 5:15:00 PM 5.7892 1.7333
11/2/2022 5:30:00 PM 5.8023 1.8279
11/2/2022 5:45:00 PM 5.8128 2.8611
11/2/2022 6:00:00 PM 5.8217 3.1529
11/2/2022 6:15:00 PM 5.8291 1.8766
11/2/2022 6:30:00 PM 5.8364 1.7679
11/2/2022 6:45:00 PM 5.8474 1.8139
11/2/2022 7:00:00 PM 5.8574 1.8819
11/2/2022 7:15:00 PM 5.8717 3.8493
11/2/2022 7:30:00 PM 5.8852 3.1418
11/2/2022 7:45:00 PM 5.909 2.8514
11/2/2022 8:00:00 PM 5.9381 2.4812
11/2/2022 8:15:00 PM 5.9617 2.2235
11/2/2022 8:30:00 PM 5.9695 1.9279
11/2/2022 8:45:00 PM 5.9774 1.9881
11/2/2022 9:00:00 PM 5.9858 1.9244
11/2/2022 9:15:00 PM 5.9916 1.9198
11/2/2022 9:30:00 PM 6.0065 1.8748
11/2/2022 9:45:00 PM 6.023 1.8463
11/2/2022 10:00:00 PM 6.037 2.1672
11/2/2022 10:15:00 PM 6.0635 2.77
11/2/2022 10:30:00 PM 6.1084 2.3267
11/2/2022 10:45:00 PM 6.1386 3.2078
11/2/2022 11:00:00 PM 6.16 3.0802
11/2/2022 11:15:00 PM 6.1776 2.8008
11/2/2022 11:30:00 PM 6.18 2.3899
11/2/2022 11:45:00 PM 6.1745 3.0554
11/3/2022 12:00:00 AM 6.1819 2.7297
11/3/2022 12:15:00 AM 6.2014 2.0639
11/3/2022 12:30:00 AM 6.2272 2.051
11/3/2022 12:45:00 AM 6.2377 2.292
11/3/2022 1:00:00 AM 6.2428 2.1617
11/3/2022 1:15:00 AM 6.2534 2.2978
11/3/2022 1:30:00 AM 6.2601 2.2164
11/3/2022 1:45:00 AM 6.2651 2.5012
11/3/2022 2:00:00 AM 6.2703 2.6817
11/3/2022 2:15:00 AM 6.2692 4.7074
11/3/2022 2:30:00 AM 6.2695 4.8673
11/3/2022 2:45:00 AM 6.2668 3.2161
11/3/2022 3:00:00 AM 6.2587 2.7196
11/3/2022 3:15:00 AM 6.2458 2.442
11/3/2022 3:30:00 AM 6.2287 2.4579
11/3/2022 3:45:00 AM 6.2094 2.1025
11/3/2022 4:00:00 AM 6.1905 1.9487
11/3/2022 4:15:00 AM 6.1764 1.8695
11/3/2022 4:30:00 AM 6.1537 1.7962
11/3/2022 4:45:00 AM 6.1291 1.7856
11/3/2022 5:00:00 AM 6.1113 1.8471
11/3/2022 5:15:00 AM 6.0849 1.8327
11/3/2022 5:30:00 AM 6.0639 1.8872
11/3/2022 5:45:00 AM 6.0399 3.3792
11/3/2022 6:00:00 AM 6.0144 2.1506
11/3/2022 6:15:00 AM 5.9882 1.9128
11/3/2022 6:30:00 AM 5.9577 1.9225
11/3/2022 6:45:00 AM 5.9247 1.8395
11/3/2022 7:00:00 AM 5.9024 2.1534
11/3/2022 7:15:00 AM 5.8871 1.9403
11/3/2022 7:30:00 AM 5.8722 1.8699
11/3/2022 7:45:00 AM 5.8578 1.8455
11/3/2022 8:00:00 AM 5.8354 1.8617
11/3/2022 8:15:00 AM 5.8189 1.8236
11/3/2022 8:30:00 AM 5.809 1.8522
11/3/2022 8:45:00 AM 5.7987 1.8448
11/3/2022 9:00:00 AM 5.7959 1.8647
11/3/2022 9:15:00 AM 5.7852 1.8789
11/3/2022 9:30:00 AM 5.7786 2.6587
11/3/2022 9:45:00 AM 5.7695 1.9934
11/3/2022 10:00:00 AM 5.7634 1.8878
11/3/2022 10:15:00 AM 5.7568 1.8132
11/3/2022 10:30:00 AM 5.7536 1.8161
11/3/2022 10:45:00 AM 5.7526 1.7696
11/3/2022 11:00:00 AM 5.753 1.8128
11/3/2022 11:15:00 AM 5.7484 1.7413
11/3/2022 11:30:00 AM 5.743 1.7511
11/3/2022 11:45:00 AM 5.7377 1.7111
11/3/2022 12:00:00 PM 5.7317 1.6374
11/3/2022 12:15:00 PM 5.73 1.685
11/3/2022 12:30:00 PM 5.7253 1.7334
11/3/2022 12:45:00 PM 5.7213 1.7232
11/3/2022 1:00:00 PM 5.7205 1.7148
11/3/2022 1:15:00 PM 5.725 1.7371
11/3/2022 1:30:00 PM 5.725 1.8735
11/3/2022 1:45:00 PM 5.7202 2.1743
11/3/2022 2:00:00 PM 5.7126 2.0708
11/3/2022 2:15:00 PM 5.7121 1.9737
11/3/2022 2:30:00 PM 5.7125 1.9512
11/3/2022 2:45:00 PM 5.7138 2.0258
11/3/2022 3:00:00 PM 5.7161 2.0517
11/3/2022 3:15:00 PM 5.7179 1.9974
11/3/2022 3:30:00 PM 5.7221 1.8966
11/3/2022 3:45:00 PM 5.7249 3.9161
11/3/2022 4:00:00 PM 5.7312 2.9514
11/3/2022 4:15:00 PM 5.7339 3.1621
11/3/2022 4:30:00 PM 5.7373 2.5014
11/3/2022 4:45:00 PM 5.7434 2.5629
11/3/2022 5:00:00 PM 5.7534 2.2521
11/3/2022 5:15:00 PM 5.7568 3.2579
11/3/2022 5:30:00 PM 5.7615 3.6497
11/3/2022 5:45:00 PM 5.7686 2.8537
11/3/2022 6:00:00 PM 5.7796 2.4486
11/3/2022 6:15:00 PM 5.7843 1.9069
11/3/2022 6:30:00 PM 5.7973 1.956
11/3/2022 6:45:00 PM 5.806 2.0902
11/3/2022 7:00:00 PM 5.818 1.9797
11/3/2022 7:15:00 PM 5.8306 1.8613
11/3/2022 7:30:00 PM 5.846 1.8811
11/3/2022 7:45:00 PM 5.8635 1.7782
11/3/2022 8:00:00 PM 5.8922 1.6927
11/3/2022 8:15:00 PM 5.9089 1.6553
11/3/2022 8:30:00 PM 5.9192 1.6391
11/3/2022 8:45:00 PM 5.9347 1.5964
11/3/2022 9:00:00 PM 5.9499 3.6558
11/3/2022 9:15:00 PM 5.9637 3.074
11/3/2022 9:30:00 PM 5.9728 1.7211
11/3/2022 9:45:00 PM 5.9911 1.6003
11/3/2022 10:00:00 PM 6.024 1.5983
11/3/2022 10:15:00 PM 6.0535 1.9761
11/3/2022 10:30:00 PM 6.0688 1.5915
11/3/2022 10:45:00 PM 6.09 1.6597
11/3/2022 11:00:00 PM 6.1045 1.6742
11/3/2022 11:15:00 PM 6.1275 1.5937
11/3/2022 11:30:00 PM 6.1576 1.575
11/3/2022 11:45:00 PM 6.1829 1.5205
11/4/2022 12:00:00 AM 6.1994 1.7421
11/4/2022 12:15:00 AM 6.2074 2.0573
11/4/2022 12:30:00 AM 6.2031 2.0298
11/4/2022 12:45:00 AM 6.2037 1.9506
11/4/2022 1:00:00 AM 6.2186 1.9538
11/4/2022 1:15:00 AM 6.234 2.0108
11/4/2022 1:30:00 AM 6.2503 1.9708
11/4/2022 1:45:00 AM 6.2621 1.8667
11/4/2022 2:00:00 AM 6.2734 1.9047
11/4/2022 2:15:00 AM 6.2734 10.5631
11/4/2022 2:30:00 AM 6.2851 3.8245
11/4/2022 2:45:00 AM 6.2906 4.6092
11/4/2022 3:00:00 AM 6.2903 1.9516
11/4/2022 3:15:00 AM 6.2876 1.8074
11/4/2022 3:30:00 AM 6.2847 2.1419
11/4/2022 3:45:00 AM 6.2786 2.2135
11/4/2022 4:00:00 AM 6.2697 2.2557
11/4/2022 4:15:00 AM 6.2589 2.109
11/4/2022 4:30:00 AM 6.2444 1.9854
11/4/2022 4:45:00 AM 6.2313 2.4069
11/4/2022 5:00:00 AM 6.2239 2.7591
11/4/2022 5:15:00 AM 6.2183 2.6594
11/4/2022 5:30:00 AM 6.2086 5.054
11/4/2022 5:45:00 AM 6.2051 3.7421
11/4/2022 6:00:00 AM 6.1964 2.1074
11/4/2022 6:15:00 AM 6.1836 2.173
11/4/2022 6:30:00 AM 6.1688 2.4641
11/4/2022 6:45:00 AM 6.1436 2.1813
11/4/2022 7:00:00 AM 6.1176 2.1008
11/4/2022 7:15:00 AM 6.0958 2.2552
11/4/2022 7:30:00 AM 6.0826 2.2632
11/4/2022 7:45:00 AM 6.0577 2.1588
11/4/2022 8:00:00 AM 6.0205 3.4514
11/4/2022 8:15:00 AM 5.9687 3.1789
11/4/2022 8:30:00 AM 5.9356 3.7735
11/4/2022 8:45:00 AM 5.9176 5.0144
11/4/2022 9:00:00 AM 5.9108 6.1763
11/4/2022 9:15:00 AM 5.9248 5.3911
11/4/2022 9:30:00 AM 5.939 8.1808
11/4/2022 9:45:00 AM 5.9307 6.5795
11/4/2022 10:00:00 AM 5.9151 3.2879
11/4/2022 10:15:00 AM 5.9057 2.2767
11/4/2022 10:30:00 AM 5.8913 1.916
11/4/2022 10:45:00 AM 5.8768 1.831
11/4/2022 11:00:00 AM 5.8545 1.8154
11/4/2022 11:15:00 AM 5.843 1.7767
11/4/2022 11:30:00 AM 5.8353 2.0976
11/4/2022 11:45:00 AM 5.8202 7.7919
11/4/2022 12:00:00 PM 5.8085 4.9517
11/4/2022 12:15:00 PM 5.7988 2.8998
11/4/2022 12:30:00 PM 5.7935 2.6414
11/4/2022 12:45:00 PM 5.7919 2.3494
11/4/2022 1:00:00 PM 5.7888 2.3134
11/4/2022 1:15:00 PM 5.7855 3.5968
11/4/2022 1:30:00 PM 5.7844 6.5351
11/4/2022 1:45:00 PM 5.7811 3.4636
11/4/2022 2:00:00 PM 5.7755 2.2897
11/4/2022 2:15:00 PM 5.7773 2.101
11/4/2022 2:30:00 PM 5.7739 2.0015
11/4/2022 2:45:00 PM 5.772 1.959
11/4/2022 3:00:00 PM 5.7761 2.0235
11/4/2022 3:15:00 PM 5.7741 2.0712
11/4/2022 3:30:00 PM 5.7758 1.9502
11/4/2022 3:45:00 PM 5.7802 2.1128
11/4/2022 4:00:00 PM 5.777 2.1854
11/4/2022 4:15:00 PM 5.7812 2.2247
11/4/2022 4:30:00 PM 5.7832 2.2925
11/4/2022 4:45:00 PM 5.788 2.0801
11/4/2022 5:00:00 PM 5.7826 2.2084
11/4/2022 5:15:00 PM 5.7844 2.1087
11/4/2022 5:30:00 PM 5.7916 2.0161
11/4/2022 5:45:00 PM 5.8016 1.7721
11/4/2022 6:00:00 PM 5.8057 1.7038
11/4/2022 6:15:00 PM 5.81 1.6643
11/4/2022 6:30:00 PM 5.8162 1.6506
11/4/2022 6:45:00 PM 5.8302 1.6824
11/4/2022 7:00:00 PM 5.8268 4.3842
11/4/2022 7:15:00 PM 5.8235 1.826
11/4/2022 7:30:00 PM 5.8466 1.6661
11/4/2022 7:45:00 PM 5.8555 1.6038
11/4/2022 8:00:00 PM 5.873 1.5512
11/4/2022 8:15:00 PM 5.8876 1.5193
11/4/2022 8:30:00 PM 5.9027 1.4846
11/4/2022 8:45:00 PM 5.9141 1.4334
11/4/2022 9:00:00 PM 5.9278 1.4543
11/4/2022 9:15:00 PM 5.9321 1.5104
11/4/2022 9:30:00 PM 5.9424 1.5472
11/4/2022 9:45:00 PM 5.9579 1.516
11/4/2022 10:00:00 PM 5.9782 1.6404
11/4/2022 10:15:00 PM 5.9932 1.6124
11/4/2022 10:30:00 PM 6.0209 1.5156
11/4/2022 10:45:00 PM 6.0456 1.6704
11/4/2022 11:00:00 PM 6.0627 1.6955
11/4/2022 11:15:00 PM 6.0678 1.536
11/4/2022 11:30:00 PM 6.0762 1.4809
11/4/2022 11:45:00 PM 6.0955 1.4898
11/5/2022 12:00:00 AM 6.1097 1.5273
11/5/2022 12:15:00 AM 6.128 2.0703
11/5/2022 12:30:00 AM 6.1606 1.8514
11/5/2022 12:45:00 AM 6.1831 1.6709
11/5/2022 1:00:00 AM 6.2012 3.5813
11/5/2022 1:15:00 AM 6.2256 3.0813
11/5/2022 1:30:00 AM 6.2274 3.1412
11/5/2022 1:45:00 AM 6.2282 1.9062
11/5/2022 2:00:00 AM 6.236 1.7296
11/5/2022 2:15:00 AM 6.2451 2.0106
11/5/2022 2:30:00 AM 6.2404 2.723
11/9/2022 9:00:00 AM 5.7052 2.2794
11/9/2022 9:15:00 AM 5.7026 2.1709
11/9/2022 9:30:00 AM 5.7073 5.9938
11/9/2022 9:45:00 AM 5.7141 3.5884
11/9/2022 10:00:00 AM 5.7207 5.0873
11/9/2022 10:15:00 AM 5.7127 3.8342
11/9/2022 10:30:00 AM 5.7078 2.7073
11/9/2022 10:45:00 AM 5.7127 2.1785
11/9/2022 11:00:00 AM 5.7113 2.3285
11/9/2022 11:15:00 AM 5.7102 2.169
11/9/2022 11:30:00 AM 5.7113 2.3018
11/9/2022 11:45:00 AM 5.7134 2.0342
11/9/2022 12:00:00 PM 5.7156 2.1894
11/9/2022 12:15:00 PM 5.7175 2.0365
11/9/2022 12:30:00 PM 5.7184 2.1228
11/9/2022 12:45:00 PM 5.7212 1.9543
11/9/2022 1:00:00 PM 5.7269 2.1877
11/9/2022 1:15:00 PM 5.7317 2.9883
11/9/2022 1:30:00 PM 5.7296 4.2722
11/9/2022 1:45:00 PM 5.7367 2.3033
11/9/2022 2:00:00 PM 5.7481 2.0804
11/9/2022 2:15:00 PM 5.7517 1.8591
11/9/2022 2:30:00 PM 5.7557 2.0622
11/9/2022 2:45:00 PM 5.7621 1.9491
11/9/2022 3:00:00 PM 5.7719 2.8305
11/9/2022 3:15:00 PM 5.7795 3.2392
11/9/2022 3:30:00 PM 5.7883 2.6684
11/9/2022 3:45:00 PM 5.795 2.1017
11/9/2022 4:00:00 PM 5.8084 2.0867
11/9/2022 4:15:00 PM 5.8221 1.9007
11/9/2022 4:30:00 PM 5.8331 1.9763
11/9/2022 4:45:00 PM 5.8444 1.8669
11/9/2022 5:00:00 PM 5.8515 1.9337
11/9/2022 5:15:00 PM 5.8609 1.8793
11/9/2022 5:30:00 PM 5.8751 2.4397
11/9/2022 5:45:00 PM 5.8854 2.3324
11/9/2022 6:00:00 PM 5.8927 2.0596
11/9/2022 6:15:00 PM 5.9065 1.849
11/9/2022 6:30:00 PM 5.9233 2.0075
11/9/2022 6:45:00 PM 5.9354 1.6611
11/9/2022 7:00:00 PM 5.9485 1.8258
11/9/2022 7:15:00 PM 5.9636 1.7631
11/9/2022 7:30:00 PM 5.969 1.8159
11/9/2022 7:45:00 PM 5.9845 1.7299
11/9/2022 8:00:00 PM 6.0015 1.8359
11/9/2022 8:15:00 PM 6.0197 1.7888
11/9/2022 8:30:00 PM 6.0369 1.9401
11/9/2022 8:45:00 PM 6.047 1.7381
11/9/2022 9:00:00 PM 6.0579 1.8944
11/9/2022 9:15:00 PM 6.0659 1.7652
11/9/2022 9:30:00 PM 6.0756 1.8284
11/9/2022 9:45:00 PM 6.0832 1.7387
11/9/2022 10:00:00 PM 6.0904 2.2958
11/9/2022 10:15:00 PM 6.0947 1.9384
11/9/2022 10:30:00 PM 6.1004 1.8863
11/9/2022 10:45:00 PM 6.1008 1.7919
11/9/2022 11:00:00 PM 6.1066 1.8572
11/9/2022 11:15:00 PM 6.1259 1.726
11/9/2022 11:30:00 PM 6.1295 1.8886
11/9/2022 11:45:00 PM 6.1251 1.9171
11/10/2022 12:00:00 AM 6.1155 2.4264
11/10/2022 12:15:00 AM 6.1041 3.7778
11/10/2022 12:30:00 AM 6.0967 2.2549
11/10/2022 12:45:00 AM 6.0839 1.9171
11/10/2022 1:00:00 AM 6.0744 2.2417
11/10/2022 1:15:00 AM 6.0704 1.9075
11/10/2022 1:30:00 AM 6.0628 1.9321
11/10/2022 1:45:00 AM 6.0549 1.7344
11/10/2022 2:00:00 AM 6.0354 1.9933
11/10/2022 2:15:00 AM 6.0206 1.8508
11/10/2022 2:30:00 AM 6.0029 2.037
11/10/2022 2:45:00 AM 5.9833 1.8639
11/10/2022 3:00:00 AM 5.9726 1.9337
11/10/2022 3:15:00 AM 5.9651 3.5772
11/10/2022 3:30:00 AM 5.9525 2.2442
11/10/2022 3:45:00 AM 5.943 1.7753
11/10/2022 4:00:00 AM 5.9316 2.0338
11/10/2022 4:15:00 AM 5.9222 1.7393
11/10/2022 4:30:00 AM 5.9138 1.8788
11/10/2022 4:45:00 AM 5.9074 1.7548
11/10/2022 5:00:00 AM 5.8985 1.8762
11/10/2022 5:15:00 AM 5.8893 1.7306
11/10/2022 5:30:00 AM 5.8862 1.9264
11/10/2022 5:45:00 AM 5.8821 1.8118
11/10/2022 6:00:00 AM 5.8793 2.2323
11/10/2022 6:15:00 AM 5.8769 2.0732
11/10/2022 6:30:00 AM 5.8746 2.0823
11/10/2022 6:45:00 AM 5.8701 1.8329
11/10/2022 7:00:00 AM 5.8676 2.0149
11/10/2022 7:15:00 AM 5.8642 1.8339
11/10/2022 7:30:00 AM 5.8647 1.9466
11/10/2022 7:45:00 AM 5.8628 1.7607
11/10/2022 8:00:00 AM 5.8593 15.7973
11/10/2022 8:15:00 AM 5.8436 3.7514
11/10/2022 8:30:00 AM 5.8368 2.506
11/10/2022 8:45:00 AM 5.8366 2.2
11/10/2022 9:00:00 AM 5.8316 2.3051
11/10/2022 9:15:00 AM 5.83 3.4265
11/10/2022 9:30:00 AM 5.8273 3.4531
11/10/2022 9:45:00 AM 5.8262 3.2398
11/10/2022 10:00:00 AM 5.8257 3.2352
11/10/2022 10:15:00 AM 5.8214 2.4115
11/10/2022 10:30:00 AM 5.8221 2.1955
11/10/2022 10:45:00 AM 5.816 1.9798
11/10/2022 11:00:00 AM 5.8114 2.5121
11/10/2022 11:15:00 AM 5.8079 2.1748
11/10/2022 11:30:00 AM 5.8115 3.3146
11/10/2022 11:45:00 AM 5.8128 4.3
11/10/2022 12:00:00 PM 5.812 2.5392
11/10/2022 12:15:00 PM 5.8166 2.2703
11/10/2022 12:30:00 PM 5.8187 2.5175
11/10/2022 12:45:00 PM 5.821 3.6534
11/10/2022 1:00:00 PM 5.8261 3.597
11/10/2022 1:15:00 PM 5.8318 4.2999
11/10/2022 1:30:00 PM 5.8294 5.4391
11/10/2022 1:45:00 PM 5.8423 5.1567
11/10/2022 2:00:00 PM 5.8456 6.0663
11/10/2022 2:15:00 PM 5.853 6.1718
11/10/2022 2:30:00 PM 5.8599 8.69
11/10/2022 2:45:00 PM 5.862 6.383
11/10/2022 3:00:00 PM 5.8674 8.3776
11/10/2022 3:15:00 PM 5.8729 6.4539
11/10/2022 3:30:00 PM 5.8829 5.5839
11/10/2022 3:45:00 PM 5.8921 4.1613
11/10/2022 4:00:00 PM 5.9064 3.3183
11/10/2022 4:15:00 PM 5.918 2.4437
11/10/2022 4:30:00 PM 5.9203 2.952
11/10/2022 4:45:00 PM 5.9228 3.1224
11/10/2022 5:00:00 PM 5.9331 2.7029
11/10/2022 5:15:00 PM 5.9414 3.189
11/10/2022 5:30:00 PM 5.9491 2.6472
11/10/2022 5:45:00 PM 5.9584 2.4
11/10/2022 6:00:00 PM 5.9663 2.6734
11/10/2022 6:15:00 PM 5.978 2.5356
11/10/2022 6:30:00 PM 6.0022 2.5522
11/10/2022 6:45:00 PM 6.0155 2.6677
11/10/2022 7:00:00 PM 6.0278 2.4158
11/10/2022 7:15:00 PM 6.0375 6.582
11/10/2022 7:30:00 PM 6.0476 4.1278
11/10/2022 7:45:00 PM 6.0648 2.1987
11/10/2022 8:00:00 PM 6.0733 2.191
11/10/2022 8:15:00 PM 6.0843 2.0403
11/10/2022 8:30:00 PM 6.0889 2.0591
11/10/2022 8:45:00 PM 6.0872 2
11/10/2022 9:00:00 PM 6.0968 1.9542
11/10/2022 9:15:00 PM 6.0955 1.9452
11/10/2022 9:30:00 PM 6.1028 1.9809
11/10/2022 9:45:00 PM 6.1187 2.6153
11/10/2022 10:00:00 PM 6.1292 3.0357
11/10/2022 10:15:00 PM 6.1423 2.0353
11/10/2022 10:30:00 PM 6.1446 1.9424
11/10/2022 10:45:00 PM 6.1374 1.9375
11/10/2022 11:00:00 PM 6.1334 1.8588
11/10/2022 11:15:00 PM 6.134 1.7641
11/10/2022 11:30:00 PM 6.1351 1.8209
11/10/2022 11:45:00 PM 6.1362 1.9
11/11/2022 12:00:00 AM 6.1349 1.8632
11/11/2022 12:15:00 AM 6.1301 1.8357
11/11/2022 12:30:00 AM 6.126 1.8404
11/11/2022 12:45:00 AM 6.1253 1.8232
11/11/2022 1:00:00 AM 6.1184 1.8421
11/11/2022 1:15:00 AM 6.107 1.8655
11/11/2022 1:30:00 AM 6.0989 2.0378
11/11/2022 1:45:00 AM 6.0892 3.1714
11/11/2022 2:00:00 AM 6.0509 3.0807
11/11/2022 2:15:00 AM 6.0377 2.4232
11/11/2022 2:30:00 AM 6.026 2.2969
11/11/2022 2:45:00 AM 6.0186 2.2
11/11/2022 3:00:00 AM 5.9917 2.7966
11/11/2022 3:15:00 AM 5.9777 2.1917
11/11/2022 3:30:00 AM 5.9622 1.9912
11/11/2022 3:45:00 AM 5.9653 2.6562
11/11/2022 4:00:00 AM 5.9701 2.2185
11/11/2022 4:15:00 AM 5.9666 2.1245
11/11/2022 4:30:00 AM 5.9584 2.093
11/11/2022 4:45:00 AM 5.9463 2.1929
11/11/2022 5:00:00 AM 5.9309 2.377
11/11/2022 5:15:00 AM 5.9155 2.1273
11/11/2022 5:30:00 AM 5.9035 2.1872
11/11/2022 5:45:00 AM 5.894 2.7999
11/11/2022 6:00:00 AM 5.8769 2.0704
11/11/2022 6:15:00 AM 5.8643 2.4189
11/11/2022 6:30:00 AM 5.8557 2.2442
11/11/2022 6:45:00 AM 5.8496 1.9673
11/11/2022 7:00:00 AM 5.8428 1.9891
11/11/2022 7:15:00 AM 5.8368 1.9535
11/11/2022 7:30:00 AM 5.8361 5.6573
11/11/2022 7:45:00 AM 5.8319 2.5159
11/11/2022 8:00:00 AM 5.8313 1.9492
11/11/2022 8:15:00 AM 5.8278 1.8501
11/11/2022 8:30:00 AM 5.8265 1.8493
11/11/2022 8:45:00 AM 5.824 1.9
11/11/2022 9:00:00 AM 5.8167 1.8446
11/11/2022 9:15:00 AM 5.8174 1.819
11/11/2022 9:30:00 AM 5.8151 1.8271
11/11/2022 9:45:00 AM 5.8134 3.2968
11/11/2022 10:00:00 AM 5.8082 1.912
11/11/2022 10:15:00 AM 5.8082 1.7553
11/11/2022 10:30:00 AM 5.8099 1.739
11/11/2022 10:45:00 AM 5.8096 1.7298
11/11/2022 11:00:00 AM 5.8092 1.7533
11/11/2022 11:15:00 AM 5.81 1.7268
11/11/2022 11:30:00 AM 5.8156 1.7561
11/11/2022 11:45:00 AM 5.8184 1.8
11/11/2022 12:00:00 PM 5.8209 2.1477
11/11/2022 12:15:00 PM 5.8215 2
11/11/2022 12:30:00 PM 5.8212 1.8228
11/11/2022 12:45:00 PM 5.8218 1.7319
11/11/2022 1:00:00 PM 5.8225 1.8231
11/11/2022 1:15:00 PM 5.8219 1.8412
11/11/2022 1:30:00 PM 5.8267 1.786
11/11/2022 1:45:00 PM 5.8315 1.8083
11/11/2022 2:00:00 PM 5.8357 1.784
11/11/2022 2:15:00 PM 5.812 1.7538
11/11/2022 2:30:00 PM 5.8045 1.7198
11/11/2022 2:45:00 PM 5.8083 1.6913
11/11/2022 3:00:00 PM 5.8147 1.7297
11/11/2022 3:15:00 PM 5.8188 1.7398
11/11/2022 3:30:00 PM 5.8231 1.7455
11/11/2022 3:45:00 PM 5.8284 1.749
11/11/2022 4:00:00 PM 5.8291 1.7438
11/11/2022 4:15:00 PM 5.8257 1.7324
11/11/2022 4:30:00 PM 5.8285 1.766
11/11/2022 4:45:00 PM 5.8351 1.7347
11/11/2022 5:00:00 PM 5.8423 1.8075
11/11/2022 5:15:00 PM 5.8429 1.8478
11/11/2022 5:30:00 PM 5.8534 1.8546
11/11/2022 5:45:00 PM 5.8562 1.8
11/11/2022 6:00:00 PM 5.8609 1.9526
11/11/2022 6:15:00 PM 5.8632 2.1212
11/11/2022 6:30:00 PM 5.8686 2.1191
11/11/2022 6:45:00 PM 5.8744 2.311
11/11/2022 7:00:00 PM 5.8788 3.0043
11/11/2022 7:15:00 PM 5.8793 4.4604
11/11/2022 7:30:00 PM 5.8815 5.5801
11/11/2022 7:45:00 PM 5.8834 5.9761
11/11/2022 8:00:00 PM 5.884 5.8024
11/11/2022 8:15:00 PM 5.8842 6.8256
11/11/2022 8:30:00 PM 5.883 7.8457
11/11/2022 8:45:00 PM 5.8758 7.8
11/11/2022 9:00:00 PM 5.8775 6.9296
11/11/2022 9:15:00 PM 5.8822 8.8283
11/11/2022 9:30:00 PM 5.8841 5.8208
11/11/2022 9:45:00 PM 5.8837 5.7947
11/11/2022 10:00:00 PM 5.881 6.1454
11/11/2022 10:15:00 PM 5.8839 5.6138
11/11/2022 10:30:00 PM 5.8853 5.5377
11/11/2022 10:45:00 PM 5.881 5.2345
11/11/2022 11:00:00 PM 5.8837 5.1232
11/11/2022 11:15:00 PM 5.896 5.4087
11/11/2022 11:30:00 PM 5.8993 5.1357
11/11/2022 11:45:00 PM 5.901 5.3
11/12/2022 12:00:00 AM 5.8939 5.3126
11/12/2022 12:15:00 AM 5.8875 5.5899
11/12/2022 12:30:00 AM 5.8801 5.1476
11/12/2022 12:45:00 AM 5.8718 4.9143
11/12/2022 1:00:00 AM 5.8633 4.7752
11/12/2022 1:15:00 AM 5.8542 5.0001
11/12/2022 1:30:00 AM 5.8437 5.29
11/12/2022 1:45:00 AM 5.8324 5.1074
11/12/2022 2:00:00 AM 5.8269 6.2152
11/12/2022 2:15:00 AM 5.8183 9.4975
11/12/2022 2:30:00 AM 5.8152 6.9887
11/12/2022 2:45:00 AM 5.81 5.4
11/12/2022 3:00:00 AM 5.8114 5.5799
11/12/2022 3:15:00 AM 5.8121 5.0635
11/12/2022 3:30:00 AM 5.8115 5.1572
11/12/2022 3:45:00 AM 5.8116 4.7927
11/12/2022 4:00:00 AM 5.8117 4.9659
11/12/2022 4:15:00 AM 5.8084 5.6824
11/12/2022 4:30:00 AM 5.8008 14.2487
11/12/2022 4:45:00 AM 5.7923 172.2147
11/12/2022 5:00:00 AM 5.7631 266.5449
11/12/2022 5:15:00 AM 5.7371 314.8733
11/12/2022 5:30:00 AM 5.7195 360.9165
11/12/2022 5:45:00 AM 5.7176 400.3
11/12/2022 6:00:00 AM 5.6952 428.4071
11/12/2022 6:15:00 AM 5.6912 470.1246
11/12/2022 6:30:00 AM 5.6825 493.0449
11/12/2022 6:45:00 AM 5.6678 486.7785
11/12/2022 7:00:00 AM 5.6502 426.6626
11/12/2022 7:15:00 AM 5.639 387.876
11/12/2022 7:30:00 AM 5.629 341.4124
11/12/2022 7:45:00 AM 5.6165 298.193
11/12/2022 8:00:00 AM 5.6068 245.3489
11/12/2022 8:15:00 AM 5.5994 200.6346
11/12/2022 8:30:00 AM 5.5975 176.6239
11/12/2022 8:45:00 AM 5.5936 168.2786
11/12/2022 9:00:00 AM 5.5893 172.8343
11/12/2022 9:15:00 AM 5.5855 164.4782
11/12/2022 9:30:00 AM 5.5786 159.168
11/12/2022 9:45:00 AM 5.5688 141.7948
11/12/2022 10:00:00 AM 5.561 125.3513
11/12/2022 10:15:00 AM 5.5552 115.5564
11/12/2022 10:30:00 AM 5.5496 101.7775
11/12/2022 10:45:00 AM 5.5457 86.6329
11/12/2022 11:00:00 AM 5.5414 117.352
11/12/2022 11:15:00 AM 5.5312 66.1018
11/12/2022 11:30:00 AM 5.5252 61.0197
11/12/2022 11:45:00 AM 5.5216 59.2
11/12/2022 12:00:00 PM 5.5154 56.5117
11/12/2022 12:15:00 PM 5.5109 57.6737
11/12/2022 12:30:00 PM 5.5034 59.2577
11/12/2022 12:45:00 PM 5.4955 63.2976
11/12/2022 1:00:00 PM 5.4875 71.6006
11/12/2022 1:15:00 PM 5.4738 73.1028
11/12/2022 1:30:00 PM 5.4623 75.3212
11/12/2022 1:45:00 PM 5.4511 78.0619
11/12/2022 2:00:00 PM 5.4396 77.7884
11/12/2022 2:15:00 PM 5.4318 77.2151
11/12/2022 2:30:00 PM 5.4234 76.7794
11/12/2022 2:45:00 PM 5.4136 75.0756
11/12/2022 3:00:00 PM 5.4083 71.0797
11/12/2022 3:15:00 PM 5.4036 66.9021
11/12/2022 3:30:00 PM 5.4014 63.61
11/12/2022 3:45:00 PM 5.3985 58.0712
11/12/2022 4:00:00 PM 5.4 52.7108
11/12/2022 4:15:00 PM 5.4005 47.6833
11/12/2022 4:30:00 PM 5.4049 44.6635
11/12/2022 4:45:00 PM 5.4081 42.2915
11/12/2022 5:00:00 PM 5.41 37.8151
11/12/2022 5:15:00 PM 5.4131 34.2395
11/12/2022 5:30:00 PM 5.4173 31.8409
11/12/2022 5:45:00 PM 5.4152 31
11/12/2022 6:00:00 PM 5.4175 28.8664
11/12/2022 6:15:00 PM 5.4174 28.0348
11/12/2022 6:30:00 PM 5.4178 26.9772
11/12/2022 6:45:00 PM 5.4176 26.4232
11/12/2022 7:00:00 PM 5.4149 26.2434
11/12/2022 7:15:00 PM 5.413 25.2835
11/12/2022 7:30:00 PM 5.409 24.5153
11/12/2022 7:45:00 PM 5.4052 23.5478
11/12/2022 8:00:00 PM 5.404 22.8207
11/12/2022 8:15:00 PM 5.4055 21.7881
11/12/2022 8:30:00 PM 5.4023 20.3489
11/12/2022 8:45:00 PM 5.4012 19.6
11/12/2022 9:00:00 PM 5.4028 18.0597
11/12/2022 9:15:00 PM 5.4042 23.0584
11/12/2022 9:30:00 PM 5.407 17.4987
11/12/2022 9:45:00 PM 5.4067 15.0092
11/12/2022 10:00:00 PM 5.408 13.9006
11/12/2022 10:15:00 PM 5.4122 13.0585
11/12/2022 10:30:00 PM 5.4088 12.3347
11/12/2022 10:45:00 PM 5.4083 11.5022
11/12/2022 11:00:00 PM 5.419 10.8375
11/12/2022 11:15:00 PM 5.4387 10.0925
11/12/2022 11:30:00 PM 5.4508 9.9832
11/12/2022 11:45:00 PM 5.4558 10
11/13/2022 12:00:00 AM 5.4707 13.5189
11/13/2022 12:15:00 AM 5.4798 18.7243
11/13/2022 12:30:00 AM 5.4893 19.0737
11/13/2022 12:45:00 AM 5.4956 18.4523
11/13/2022 1:00:00 AM 5.503 17.6515
11/13/2022 1:15:00 AM 5.5103 16.8756
11/13/2022 1:30:00 AM 5.5157 16.4728
11/13/2022 1:45:00 AM 5.5203 15.9462
11/13/2022 2:00:00 AM 5.5256 16.3279
11/13/2022 2:15:00 AM 5.5305 16.6794
11/13/2022 2:30:00 AM 5.5329 16.4618
11/13/2022 2:45:00 AM 5.5356 16.5
11/13/2022 3:00:00 AM 5.5428 16.4382
11/13/2022 3:15:00 AM 5.5449 17.0225
11/13/2022 3:30:00 AM 5.5497 16.3492
11/13/2022 3:45:00 AM 5.5505 14.9955
11/13/2022 4:00:00 AM 5.5513 15.176
11/13/2022 4:15:00 AM 5.5509 15.4208
11/13/2022 4:30:00 AM 5.5551 15.2101
11/13/2022 4:45:00 AM 5.5538 15.246
11/13/2022 5:00:00 AM 5.5108 14.9446
11/13/2022 5:15:00 AM 5.492 14.3631
11/13/2022 5:30:00 AM 5.4879 14.4196
11/13/2022 5:45:00 AM 5.4824 14.5
11/13/2022 6:00:00 AM 5.4709 14.799
11/13/2022 6:15:00 AM 5.4683 14.8127
11/13/2022 6:30:00 AM 5.4607 14.9083
11/13/2022 6:45:00 AM 5.4528 14.8891
11/13/2022 7:00:00 AM 5.4482 15.2993
11/13/2022 7:15:00 AM 5.4556 15.5025
11/13/2022 7:30:00 AM 5.4508 15.7874
11/13/2022 7:45:00 AM 5.4423 16.3568
11/13/2022 8:00:00 AM 5.4409 17.1795
11/13/2022 8:15:00 AM 5.4422 17.8892
11/13/2022 8:30:00 AM 5.4423 18.2429
11/13/2022 8:45:00 AM 5.4432 18.5
11/13/2022 9:00:00 AM 5.4388 19.1708
11/13/2022 9:15:00 AM 5.4255 31.0511
11/13/2022 9:30:00 AM 5.3881 25.4155
11/13/2022 9:45:00 AM 5.3678 10.1914
11/13/2022 10:00:00 AM 5.3903 10.729
11/13/2022 10:15:00 AM 5.3988 16.3587
11/13/2022 10:30:00 AM 5.3969 12.5611
11/13/2022 10:45:00 AM 5.399 11.2103
11/13/2022 11:00:00 AM 5.402 11.3155
11/13/2022 11:15:00 AM 5.3993 11.0854
11/13/2022 11:30:00 AM 5.4015 11.1877
11/13/2022 11:45:00 AM 5.3998 11
11/13/2022 12:00:00 PM 5.4028 10.9926
11/13/2022 12:15:00 PM 5.403 10.5777
11/13/2022 12:30:00 PM 5.4027 10.3138
11/13/2022 12:45:00 PM 5.4021 9.8809
11/13/2022 1:00:00 PM 5.4078 10.2528
11/13/2022 1:15:00 PM 5.4101 12.7683
11/13/2022 1:30:00 PM 5.4094 15.9549
11/13/2022 1:45:00 PM 5.4126 18.4101
11/13/2022 2:00:00 PM 5.4136 17.9487
11/13/2022 2:15:00 PM 5.4145 17.7918
11/13/2022 2:30:00 PM 5.4144 17.5367
11/13/2022 2:45:00 PM 5.4183 17.4705
11/13/2022 3:00:00 PM 5.4228 17.4882
11/13/2022 3:15:00 PM 5.4278 17.743
11/13/2022 3:30:00 PM 5.4279 18.103
11/13/2022 3:45:00 PM 5.4241 18.5171
11/13/2022 4:00:00 PM 5.4218 18.5969
11/13/2022 4:15:00 PM 5.422 18.8808
11/13/2022 4:30:00 PM 5.4239 18.9611
11/13/2022 4:45:00 PM 5.4209 19.3223
11/13/2022 5:00:00 PM 5.4171 16.7267
11/13/2022 5:15:00 PM 5.4187 16.5396
11/13/2022 5:30:00 PM 5.4198 10.0206
11/13/2022 5:45:00 PM 5.4152 9.7
11/13/2022 6:00:00 PM 5.4152 10.0845
11/13/2022 6:15:00 PM 5.4182 10.027
11/13/2022 6:30:00 PM 5.4221 9.9967
11/13/2022 6:45:00 PM 5.422 9.7899
11/13/2022 7:00:00 PM 5.4231 9.6743
11/13/2022 7:15:00 PM 5.4245 9.5403
11/13/2022 7:30:00 PM 5.4268 11.1077
11/13/2022 7:45:00 PM 5.4279 14.2688
11/13/2022 8:00:00 PM 5.4358 10.6968
11/13/2022 8:15:00 PM 5.4401 10.6801
11/13/2022 8:30:00 PM 5.4441 10.4905
11/13/2022 8:45:00 PM 5.446 10.2
11/13/2022 9:00:00 PM 5.4458 9.724
11/13/2022 9:15:00 PM 5.4499 9.5888
11/13/2022 9:30:00 PM 5.4517 13.3556
11/13/2022 9:45:00 PM 5.4514 18.3751
11/13/2022 10:00:00 PM 5.4485 18.3424
11/13/2022 10:15:00 PM 5.4698 18.6945
11/13/2022 10:30:00 PM 5.484 18.0234
11/13/2022 10:45:00 PM 5.4945 17.7679
11/13/2022 11:00:00 PM 5.5023 16.8739
11/13/2022 11:15:00 PM 5.5117 16.2934
11/13/2022 11:30:00 PM 5.5184 15.9724
11/13/2022 11:45:00 PM 5.523 16
11/14/2022 12:00:00 AM 5.5271 15.5932
11/14/2022 12:15:00 AM 5.5319 18.3633
11/14/2022 12:30:00 AM 5.5277 16.9549
11/14/2022 12:45:00 AM 5.5259 13.1704
11/14/2022 1:00:00 AM 5.5262 13.232
11/14/2022 1:15:00 AM 5.5278 13.26
11/14/2022 1:30:00 AM 5.5305 12.846
11/14/2022 1:45:00 AM 5.5314 12.7381
11/14/2022 2:00:00 AM 5.535 12.8174
11/14/2022 2:15:00 AM 5.5405 13.1865
11/14/2022 2:30:00 AM 5.5408 13.4287
11/14/2022 2:45:00 AM 5.5412 12.7
11/14/2022 3:00:00 AM 5.5313 12.8331
11/14/2022 3:15:00 AM 5.5308 12.975
11/14/2022 3:30:00 AM 5.527 12.6819
11/14/2022 3:45:00 AM 5.5208 12.5368
11/14/2022 4:00:00 AM 5.5197 12.5853
11/14/2022 4:15:00 AM 5.5206 12.5799
11/14/2022 4:30:00 AM 5.5185 12.585
11/14/2022 4:45:00 AM 5.5145 12.633
11/14/2022 5:00:00 AM 5.5126 12.8653
11/14/2022 5:15:00 AM 5.51 12.9835
11/14/2022 5:30:00 AM 5.5091 13.1416
11/14/2022 5:45:00 AM 5.5132 13.2
11/14/2022 6:00:00 AM 5.5059 13.2934
11/14/2022 6:15:00 AM 5.5014 13.3565
11/14/2022 6:30:00 AM 5.5 13.4774
11/14/2022 6:45:00 AM 5.4965 13.4957
11/14/2022 7:00:00 AM 5.4966 13.5101
11/14/2022 7:15:00 AM 5.4962 13.8525
11/14/2022 7:30:00 AM 5.4964 13.9502
11/14/2022 7:45:00 AM 5.494 14.1249
11/14/2022 8:00:00 AM 5.497 13.9255
11/14/2022 8:15:00 AM 5.5226 13.4757
11/14/2022 8:30:00 AM 5.5359 13.5931
11/14/2022 8:45:00 AM 5.5384 13.2
11/14/2022 9:00:00 AM 5.5463 12.2646
11/14/2022 9:15:00 AM 5.5526 11.9079
11/14/2022 9:30:00 AM 5.5555 11.9923
11/14/2022 9:45:00 AM 5.5556 12.4029
11/14/2022 10:00:00 AM 5.5555 12.3791
11/14/2022 10:15:00 AM 5.5553 14.877
11/14/2022 10:30:00 AM 5.5587 12.6207
11/14/2022 10:45:00 AM 5.56 11.7602
11/14/2022 11:00:00 AM 5.5603 14.0554
11/14/2022 11:15:00 AM 5.5566 11.3753
11/14/2022 11:30:00 AM 5.5564 11.5369
11/14/2022 11:45:00 AM 5.5593 11.4793
11/14/2022 12:00:00 PM 5.56 11.2979
11/14/2022 12:15:00 PM 5.5601 10.7227
11/14/2022 12:30:00 PM 5.5601 10.4031
11/14/2022 12:45:00 PM 5.5629 10.1167
11/14/2022 1:00:00 PM 5.5646 9.8721
11/14/2022 1:15:00 PM 5.5649 9.7712
11/14/2022 1:30:00 PM 5.5651 9.678
11/14/2022 1:45:00 PM 5.5649 9.5393
11/14/2022 2:00:00 PM 5.5682 9.3676
11/14/2022 2:15:00 PM 5.5697 9.3228
11/14/2022 2:30:00 PM 5.5728 9.2804
11/14/2022 2:45:00 PM 5.5749 9.277
11/14/2022 3:00:00 PM 5.5791 9.0542
11/14/2022 3:15:00 PM 5.5829 8.9325
11/14/2022 3:30:00 PM 5.585 8.8982
11/14/2022 3:45:00 PM 5.5893 8.8431
11/14/2022 4:00:00 PM 5.5927 8.7296
11/14/2022 4:15:00 PM 5.5979 8.6179
11/14/2022 4:30:00 PM 5.6034 8.5581
11/14/2022 4:45:00 PM 5.6074 8.3883
11/14/2022 5:00:00 PM 5.6134 8.347
11/14/2022 5:15:00 PM 5.6176 8.2272
11/14/2022 5:30:00 PM 5.622 8.1544
11/14/2022 5:45:00 PM 5.6224 8.2
11/14/2022 6:00:00 PM 5.6317 8.1529
11/14/2022 6:15:00 PM 5.638 8.0482
11/14/2022 6:30:00 PM 5.6422 8.0507
11/14/2022 6:45:00 PM 5.648 8.0378
11/14/2022 7:00:00 PM 5.6534 8.0584
11/14/2022 7:15:00 PM 5.6567 7.9482
11/14/2022 7:30:00 PM 5.6606 8.0338
11/14/2022 7:45:00 PM 5.664 8.0777
11/14/2022 8:00:00 PM 5.6666 8.2994
11/14/2022 8:15:00 PM 5.6677 8.2149
11/14/2022 8:30:00 PM 5.6719 8.2071
11/14/2022 8:45:00 PM 5.6742 8.2
11/14/2022 9:00:00 PM 5.6771 8.1599
11/14/2022 9:15:00 PM 5.6793 8.0866
11/14/2022 9:30:00 PM 5.683 8.165
11/14/2022 9:45:00 PM 5.6867 8.2313
11/14/2022 10:00:00 PM 5.6918 8.233
11/14/2022 10:15:00 PM 5.6951 8.0408
11/14/2022 10:30:00 PM 5.6973 8.6326
11/14/2022 10:45:00 PM 5.698 8.3667
11/14/2022 11:00:00 PM 5.7014 8.284
11/14/2022 11:15:00 PM 5.7048 8.1359
11/14/2022 11:30:00 PM 5.7079 7.9776
11/14/2022 11:45:00 PM 5.7078 8
11/15/2022 12:00:00 AM 5.7139 8.1507
11/15/2022 12:15:00 AM 5.7153 8.2525
11/15/2022 12:30:00 AM 5.7164 8.2176
11/15/2022 12:45:00 AM 5.7195 8.1114
11/15/2022 1:00:00 AM 5.7239 8.1624
11/15/2022 1:15:00 AM 5.724 8.1636
11/15/2022 1:30:00 AM 5.7247 8.1502
11/15/2022 1:45:00 AM 5.726 8.1002
11/15/2022 2:00:00 AM 5.7267 8.0927
11/15/2022 2:15:00 AM 5.729 8.0771
11/15/2022 2:30:00 AM 5.7285 8.1477
11/15/2022 2:45:00 AM 5.7316 8
11/15/2022 3:00:00 AM 5.7344 8.2612
11/15/2022 3:15:00 AM 5.7353 8.2069
11/15/2022 3:30:00 AM 5.7375 8.1378
11/15/2022 3:45:00 AM 5.7396 8.1278
11/15/2022 4:00:00 AM 5.7407 8.039
11/15/2022 4:15:00 AM 5.7447 7.99
11/15/2022 4:30:00 AM 5.7448 8.0522
11/15/2022 4:45:00 AM 5.7472 7.9621
11/15/2022 5:00:00 AM 5.7497 7.8971
11/15/2022 5:15:00 AM 5.7499 7.9057
11/15/2022 5:30:00 AM 5.7537 7.9758
11/15/2022 5:45:00 AM 5.7554 8.2
11/15/2022 6:00:00 AM 5.7553 8.4501
11/15/2022 6:15:00 AM 5.7594 8.098
11/15/2022 6:30:00 AM 5.7589 8.1209
11/15/2022 6:45:00 AM 5.7626 8.5555
11/15/2022 7:00:00 AM 5.7602 8.8801
11/15/2022 7:15:00 AM 5.7609 8.6541
11/15/2022 7:30:00 AM 5.7627 8.6435
11/15/2022 7:45:00 AM 5.7634 8.4737
11/15/2022 8:00:00 AM 5.7635 8.3325
11/15/2022 8:15:00 AM 5.7639 7.8492
11/15/2022 8:30:00 AM 5.764 7.4351
11/15/2022 8:45:00 AM 5.761 7.2
11/15/2022 9:00:00 AM 5.7636 7.6305
11/15/2022 9:15:00 AM 5.763 7.2715
11/15/2022 9:30:00 AM 5.7604 7.0612
11/15/2022 9:45:00 AM 5.7619 6.7992
11/15/2022 10:00:00 AM 5.7633 6.678
11/15/2022 10:15:00 AM 5.7633 6.558
11/15/2022 10:30:00 AM 5.7635 7.2808
11/15/2022 10:45:00 AM 5.7637 9.529
11/15/2022 11:00:00 AM 5.7636 8.9423
11/15/2022 11:15:00 AM 5.7651 6.5798
11/15/2022 11:30:00 AM 5.7684 6.4798
11/15/2022 11:45:00 AM 5.7652 6.4999
11/15/2022 12:00:00 PM 5.7721 6.6374
11/15/2022 12:15:00 PM 5.7737 7.659
11/15/2022 12:30:00 PM 5.7755 7.9416
11/15/2022 12:45:00 PM 5.778 7.8686
11/15/2022 1:00:00 PM 5.7802 7.4344